KG7AIQ Weather Reports


time (UTC)temp
C
wind
direction
speed
KPH
gust
KPH
rain 1hr
cm
rain 24hr
cm
rain mn
cm
humidity
%
barometer
mb
20260506035257 17 295 4.8 9.7 0.00 0.00 0.00 50 1012.5
20260506035152 17 324 4.8 9.7 0.00 0.00 0.00 49 1012.5
20260506035148 17 339 4.8 9.7 0.00 0.00 0.00 49 1012.5
20260506035111 17 328 6.4 9.7 0.00 0.00 0.00 49 1012.5
20260506035107 17 281 6.4 9.7 0.00 0.00 0.00 49 1012.5
20260506035103 17 223 4.8 9.7 0.00 0.00 0.00 49 1012.5
20260506034747 17 290 6.4 9.7 0.00 0.00 0.00 49 1012.2
20260506034701 17 327 6.4 9.7 0.00 0.00 0.00 48 1012.2
20260506034653 17 265 6.4 9.7 0.00 0.00 0.00 49 1012.2
20260506034448 17 52 6.4 9.7 0.00 0.00 0.00 48 1012.2
20260506034347 17 324 6.4 9.7 0.00 0.00 0.00 48 1012.2
20260506034247 17 259 6.4 9.7 0.00 0.00 0.00 48 1012.2
20260506034148 17 313 6.4 9.7 0.00 0.00 0.00 48 1012.2
20260506034047 17 311 6.4 9.7 0.00 0.00 0.00 48 1012.2
20260506033947 17 286 4.8 9.7 0.00 0.00 0.00 48 1012.2
20260506033847 17 233 4.8 9.7 0.00 0.00 0.00 48 1012.2
20260506033748 17 231 4.8 9.7 0.00 0.00 0.00 48 1012.2
20260506033647 17 302 4.8 9.7 0.00 0.00 0.00 49 1012.2
20260506033548 17 265 4.8 9.7 0.00 0.00 0.00 49 1012.2
20260506033447 17 284 4.8 9.7 0.00 0.00 0.00 49 1012.2
20260506033347 17 51 4.8 9.7 0.00 0.00 0.00 49 1012.2
20260506033305 17 274 4.8 12.9 0.00 0.00 0.00 49 1012.0
20260506033301 17 296 4.8 9.7 0.00 0.00 0.00 49 1012.0
20260506033152 17 337 4.8 12.9 0.00 0.00 0.00 49 1012.0
20260506033148 17 346 4.8 12.9 0.00 0.00 0.00 49 1012.0
20260506032943 17 285 4.8 12.9 0.00 0.00 0.00 49 1012.0
20260506032842 17 287 4.8 12.9 0.00 0.00 0.00 49 1012.0
20260506032742 17 296 4.8 12.9 0.00 0.00 0.00 49 1012.0
20260506032647 17 302 4.8 12.9 0.00 0.00 0.00 49 1012.0
20260506032642 17 300 4.8 12.9 0.00 0.00 0.00 49 1012.0
20260506032543 17 284 4.8 12.9 0.00 0.00 0.00 50 1012.0
20260506032443 17 267 4.8 16.1 0.00 0.00 0.00 49 1012.0
20260506032337 17 232 4.8 16.1 0.00 0.00 0.00 49 1012.0
20260506032232 17 260 4.8 16.1 0.00 0.00 0.00 49 1012.0
20260506032145 17 287 4.8 16.1 0.00 0.00 0.00 49 1012.0
20260506032132 17 286 4.8 16.1 0.00 0.00 0.00 49 1012.0
20260506032030 17 230 4.8 16.1 0.00 0.03 0.00 49 1012.0
20260506031928 17 256 4.8 16.1 0.00 0.03 0.00 50 1012.0
20260506031823 17 190 4.8 16.1 0.00 0.03 0.00 50 1011.9
20260506031722 17 275 4.8 16.1 0.00 0.05 0.00 49 1011.9
20260506031645 17 287 4.8 16.1 0.00 0.05 0.00 50 1011.9
20260506031623 17 259 4.8 16.1 0.00 0.05 0.00 49 1011.9
20260506031522 17 284 4.8 11.3 0.00 0.08 0.00 50 1011.9
20260506031422 17 256 4.8 11.3 0.00 0.08 0.00 49 1011.9
20260506031331 17 246 4.8 11.3 0.00 0.08 0.00 49 1011.9
20260506031327 17 301 4.8 11.3 0.00 0.08 0.00 49 1011.9
20260506031145 17 278 4.8 11.3 0.00 0.08 0.00 49 1011.9
20260506031120 17 255 4.8 11.3 0.00 0.08 0.00 49 1011.9
20260506031020 17 273 4.8 11.3 0.00 0.08 0.00 49 1011.9
20260506030920 17 247 6.4 11.3 0.00 0.08 0.00 49 1011.9
20260506030819 17 232 6.4 11.3 0.00 0.08 0.00 50 1011.9
20260506030717 17 322 6.4 11.3 0.00 0.08 0.00 50 1011.9
20260506030645 17 238 6.4 11.3 0.00 0.10 0.00 50 1011.9
20260506030618 17 253 6.4 11.3 0.00 0.10 0.00 50 1011.9
20260506030517 17 263 6.4 11.3 0.00 0.10 0.00 50 1011.9
20260506030418 17 290 6.4 11.3 0.00 0.10 0.00 49 1011.9
20260506030317 17 266 6.4 12.9 0.00 0.10 0.00 49 1011.9
20260506030213 17 253 6.4 12.9 0.00 0.10 0.00 50 1011.9
20260506030144 17 303 6.4 12.9 0.00 0.10 0.00 50 1011.9
20260506030110 17 254 6.4 16.1 0.00 0.10 0.00 49 1011.9
20260506030019 17 300 4.8 16.1 0.00 0.13 0.00 49 1011.9
20260506030015 17 268 6.4 16.1 0.00 0.10 0.00 49 1011.9
20260506025809 17 276 4.8 16.1 0.00 0.13 0.00 49 1011.9
20260506025710 17 245 4.8 16.1 0.00 0.13 0.00 50 1011.9
20260506025644 17 272 4.8 16.1 0.00 0.13 0.00 50 1011.9
20260506025609 17 274 4.8 16.1 0.00 0.13 0.00 50 1011.9
20260506025510 17 269 4.8 16.1 0.00 0.15 0.00 50 1011.9
20260506025416 17 281 4.8 16.1 0.00 0.18 0.00 50 1011.9
20260506025409 17 263 4.8 16.1 0.00 0.15 0.00 50 1011.9
20260506025307 17 109 4.8 16.1 0.00 0.18 0.00 50 1011.9
20260506025251 17 278 4.8 16.1 0.00 0.18 0.00 50 1011.9
20260506025105 17 309 4.8 16.1 0.00 0.18 0.00 50 1011.9
20260506025004 17 193 1.6 14.5 0.00 0.18 0.00 50 1011.9
20260506024915 17 334 1.6 14.5 0.00 0.18 0.00 49 1011.6
20260506024904 17 244 1.6 14.5 0.00 0.18 0.00 50 1011.9
20260506024803 17 261 1.6 14.5 0.00 0.18 0.00 50 1011.6
20260506024750 17 191 1.6 14.5 0.00 0.18 0.00 50 1011.6
20260506024602 17 255 1.6 9.7 0.00 0.18 0.00 50 1011.6
20260506024501 17 261 1.6 9.7 0.00 0.18 0.00 50 1011.6
20260506024401 17 291 1.6 9.7 0.00 0.18 0.00 49 1011.6
20260506024301 17 64 1.6 9.7 0.00 0.18 0.00 49 1011.6
20260506024212 17 250 1.6 8.0 0.00 0.18 0.00 49 1011.6
20260506024208 17 262 1.6 8.0 0.00 0.18 0.00 49 1011.6
20260506024203 17 266 1.6 8.0 0.00 0.18 0.00 49 1011.6
20260506023958 17 234 0.0 6.4 0.00 0.18 0.00 49 1011.6
20260506023849 17 234 0.0 6.4 0.00 0.18 0.00 49 1011.6
20260506023749 17 233 0.0 6.4 0.00 0.18 0.00 49 1011.6
20260506023648 17 233 0.0 6.4 0.00 0.18 0.00 49 1011.6
20260506023642 17 232 0.0 6.4 0.00 0.18 0.00 49 1011.6
20260506023549 17 267 0.0 6.4 0.00 0.18 0.00 49 1011.6
20260506023446 18 304 0.0 6.4 0.00 0.18 0.00 48 1011.6
20260506023356 18 294 0.0 0.0 0.00 0.18 0.00 50 1011.5
20260506023352 18 233 0.0 4.8 0.00 0.18 0.00 49 1011.6
20260506023143 18 294 0.0 0.0 0.00 0.18 0.00 49 1011.5
20260506023028 18 294 0.0 0.0 0.00 0.18 0.00 50 1011.5
20260506022909 18 294 0.0 0.0 0.00 0.18 0.00 48 1011.5
20260506022808 18 294 0.0 0.0 0.00 0.18 0.00 48 1011.5
20260506022659 18 294 0.0 0.0 0.00 0.18 0.00 48 1011.5
20260506022614 18 294 0.0 0.0 0.00 0.18 0.00 48 1011.5
20260506022523 18 294 0.0 0.0 0.00 0.18 0.00 48 1011.5
20260506022422 18 294 0.0 0.0 0.00 0.18 0.00 47 1011.5
20260506022259 18 294 0.0 0.0 0.00 0.18 0.00 46 1011.5
20260506022255 18 294 0.0 0.0 0.00 0.18 0.00 46 1011.5
20260506022251 18 294 0.0 0.0 0.00 0.18 0.00 47 1011.5
20260506022140 18 294 0.0 0.0 0.00 0.18 0.00 46 1011.5
20260506021938 18 294 1.6 0.0 0.00 0.18 0.00 45 1011.4
20260506021934 18 294 1.6 0.0 0.00 0.18 0.00 46 1011.5
20260506021726 18 294 1.6 0.0 0.00 0.18 0.00 45 1011.4
20260506021618 19 294 1.6 0.0 0.00 0.18 0.00 46 1011.4
20260506021559 19 294 1.6 0.0 0.00 0.18 0.00 45 1011.4
20260506021514 19 294 1.6 0.0 0.00 0.18 0.00 45 1011.4
20260506021411 19 294 1.6 0.0 0.00 0.18 0.00 44 1011.4
20260506021310 19 294 1.6 3.2 0.00 0.18 0.00 44 1011.4
20260506021156 19 294 1.6 6.4 0.00 0.18 0.00 43 1011.4
20260506021038 19 294 1.6 6.4 0.00 0.18 0.00 42 1011.4
20260506020939 19 294 3.2 6.4 0.00 0.18 0.00 43 1011.4
20260506020836 19 294 3.2 6.4 0.00 0.18 0.00 43 1011.4
20260506020731 19 294 3.2 6.4 0.00 0.18 0.00 42 1011.4
20260506020617 19 294 3.2 6.4 0.00 0.18 0.00 41 1011.4
20260506020537 19 294 3.2 6.4 0.00 0.18 0.00 42 1011.4
20260506020518 19 294 3.2 6.4 0.00 0.18 0.00 41 1011.4
20260506020416 19 294 3.2 6.4 0.00 0.18 0.00 41 1011.4
20260506020314 19 294 3.2 6.4 0.00 0.18 0.00 40 1011.3
20260506020208 19 294 3.2 8.0 0.00 0.18 0.00 40 1011.3
20260506020109 19 261 3.2 8.0 0.00 0.18 0.00 41 1011.3
20260506020037 19 261 3.2 8.0 0.00 0.18 0.00 41 1011.3
20260506020005 19 261 1.6 8.0 0.00 0.18 0.00 40 1011.3
20260506015906 20 261 1.6 8.0 0.00 0.20 0.00 41 1011.3
20260506015806 20 259 1.6 8.0 0.00 0.20 0.00 41 1011.3
20260506015701 20 260 1.6 8.0 0.00 0.20 0.00 40 1011.3
20260506015532 20 194 1.6 8.0 0.00 0.20 0.00 41 1011.3
20260506015456 20 193 1.6 8.0 0.00 0.20 0.00 39 1011.3
20260506015354 20 306 1.6 8.0 0.00 0.20 0.00 40 1011.3
20260506015252 20 306 1.6 8.0 0.00 0.20 0.00 39 1011.3
20260506015149 20 286 1.6 6.4 0.00 0.20 0.00 41 1011.3
20260506015054 20 263 1.6 4.8 0.00 0.20 0.00 40 1011.3
20260506015050 20 263 1.6 4.8 0.00 0.20 0.00 41 1011.3
20260506015045 20 263 1.6 4.8 0.00 0.20 0.00 40 1011.3
20260506014838 20 263 1.6 4.8 0.00 0.20 0.00 40 1011.3
20260506014738 20 263 1.6 4.8 0.00 0.20 0.00 39 1011.3
20260506014734 20 263 1.6 4.8 0.00 0.20 0.00 39 1011.3
20260506014528 20 263 1.6 4.8 0.00 0.20 0.00 40 1011.3
20260506014522 20 263 1.6 4.8 0.00 0.20 0.00 39 1011.3
20260506014442 20 256 1.6 8.0 0.00 0.20 0.00 39 1011.3
20260506014438 20 257 1.6 8.0 0.00 0.20 0.00 40 1011.3
20260506014434 20 257 1.6 4.8 0.00 0.20 0.00 39 1011.3
20260506014119 20 289 1.6 8.0 0.00 0.20 0.00 39 1011.3
20260506014016 20 315 1.6 8.0 0.00 0.20 0.00 39 1011.3
20260506013914 20 315 3.2 8.0 0.00 0.20 0.00 39 1011.3
20260506013749 20 315 3.2 8.0 0.00 0.20 0.00 40 1011.3
20260506013641 20 315 3.2 8.0 0.00 0.20 0.00 38 1011.3
20260506013522 20 315 3.2 8.0 0.00 0.23 0.00 39 1011.3
20260506013426 20 315 3.2 8.0 0.00 0.23 0.00 38 1011.3
20260506013322 20 259 3.2 6.4 0.00 0.23 0.00 38 1011.5
20260506013221 20 259 3.2 6.4 0.00 0.23 0.00 38 1011.5
20260506013115 20 290 3.2 6.4 0.00 0.25 0.00 38 1011.5
20260506013027 21 291 3.2 6.4 0.00 0.30 0.00 37 1011.5
20260506013023 21 270 3.2 6.4 0.00 0.30 0.00 38 1011.5
20260506013014 20 290 3.2 6.4 0.00 0.28 0.00 37 1011.5
20260506012703 21 190 3.2 6.4 0.00 0.30 0.00 38 1011.5
20260506012603 21 190 3.2 6.4 0.00 0.30 0.00 38 1011.5
20260506012514 21 185 3.2 6.4 0.00 0.30 0.00 38 1011.5
20260506012458 21 183 3.2 6.4 0.00 0.30 0.00 38 1011.5
20260506012356 21 155 3.2 6.4 0.00 0.33 0.00 37 1011.5
20260506012351 21 183 3.2 6.4 0.00 0.33 0.00 38 1011.5
20260506012146 21 146 3.2 6.4 0.00 0.36 0.00 36 1011.5
20260506012052 21 208 3.2 6.4 0.00 0.36 0.00 38 1011.5
20260506012048 21 153 3.2 6.4 0.00 0.36 0.00 37 1011.5
20260506012042 21 153 3.2 6.4 0.00 0.36 0.00 38 1011.5
20260506011839 21 208 3.2 6.4 0.00 0.38 0.00 37 1011.5
20260506011746 21 208 3.2 6.4 0.00 0.38 0.00 37 1011.4
20260506011742 21 208 3.2 6.4 0.00 0.38 0.00 37 1011.4
20260506011533 21 208 3.2 6.4 0.00 0.41 0.00 37 1011.4
20260506011515 21 208 3.2 8.0 0.00 0.41 0.00 37 1011.4
20260506011419 21 239 3.2 8.0 0.00 0.41 0.00 36 1011.4
20260506011319 21 239 3.2 8.0 0.00 0.41 0.00 36 1011.4
20260506011228 21 251 3.2 8.0 0.00 0.43 0.00 36 1011.4
20260506011223 21 221 3.2 8.0 0.00 0.41 0.00 36 1011.4
20260506011013 21 266 3.2 8.0 0.00 0.43 0.00 37 1011.4
20260506010911 21 100 3.2 8.0 0.00 0.43 0.00 36 1011.4
20260506010807 21 271 3.2 8.0 0.00 0.43 0.00 36 1011.4
20260506010705 21 271 3.2 8.0 0.00 0.43 0.00 36 1011.4
20260506010606 21 274 3.2 8.0 0.00 0.46 0.00 36 1011.4
20260506010507 21 233 3.2 8.0 0.00 0.46 0.00 36 1011.4
20260506010458 21 232 3.2 8.0 0.00 0.46 0.00 36 1011.4
20260506010341 21 231 3.2 8.0 0.00 0.46 0.00 37 1011.4
20260506010242 21 232 3.2 8.0 0.00 0.46 0.00 36 1011.4
20260506010237 21 241 3.2 8.0 0.00 0.46 0.00 36 1011.4
20260506010029 21 293 3.2 8.0 0.00 0.46 0.00 35 1011.4
20260506010007 21 264 4.8 6.4 0.00 0.46 0.00 35 1011.4
20260506005929 21 77 4.8 6.4 0.00 0.46 0.00 36 1011.4
20260506005828 21 144 4.8 6.4 0.00 0.46 0.00 36 1011.4
20260506005729 21 199 4.8 9.7 0.00 0.46 0.00 36 1011.4
20260506005634 21 167 4.8 9.7 0.00 0.48 0.00 36 1011.4
20260506005630 21 176 4.8 9.7 0.00 0.46 0.00 36 1011.4
20260506005507 21 164 4.8 9.7 0.00 0.48 0.00 36 1011.4
20260506005423 21 173 4.8 9.7 0.00 0.51 0.00 35 1011.4
20260506005319 21 190 4.8 9.7 0.00 0.51 0.00 37 1011.4
20260506005218 21 190 4.8 9.7 0.00 0.51 0.00 36 1011.4
20260506005116 21 116 4.8 9.7 0.00 0.53 0.00 36 1011.4
20260506005016 21 99 4.8 9.7 0.00 0.53 0.00 36 1011.4
20260506005007 21 99 6.4 9.7 0.00 0.53 0.00 36 1011.4
20260506004915 21 136 6.4 9.7 0.00 0.53 0.00 37 1011.4
20260506004835 21 61 6.4 9.7 0.00 0.56 0.00 36 1011.5
20260506004831 21 30 6.4 9.7 0.00 0.58 0.00 37 1011.5
20260506004827 21 275 6.4 9.7 0.00 0.56 0.00 36 1011.5
20260506004507 21 232 6.4 9.7 0.00 0.58 0.00 37 1011.5
20260506004437 21 250 6.4 9.7 0.00 0.58 0.00 36 1011.5
20260506004433 21 250 6.4 9.7 0.00 0.58 0.00 36 1011.5
20260506004429 21 282 6.4 11.3 0.00 0.61 0.00 36 1011.5
20260506004425 21 233 6.4 9.7 0.00 0.58 0.00 36 1011.5
20260506004007 21 315 4.8 11.3 0.00 0.61 0.00 36 1011.5
20260506003903 21 268 4.8 14.5 0.00 0.61 0.00 35 1011.5
20260506003804 21 288 4.8 14.5 0.00 0.61 0.00 35 1011.5
20260506003711 21 343 4.8 14.5 0.00 0.61 0.00 35 1011.5
20260506003707 21 318 4.8 14.5 0.00 0.61 0.00 36 1011.5
20260506003520 21 309 4.8 14.5 0.00 0.61 0.00 35 1011.5
20260506003516 21 263 4.8 14.5 0.00 0.61 0.00 35 1011.4
20260506003511 21 344 4.8 14.5 0.00 0.61 0.00 35 1011.5
20260506003507 21 344 4.8 14.5 0.00 0.61 0.00 35 1011.5
20260506003156 21 230 4.8 14.5 0.00 0.61 0.00 35 1011.4
20260506003056 21 263 4.8 14.5 0.00 0.61 0.00 35 1011.4
20260506003004 21 258 8.0 14.5 0.00 0.61 0.00 35 1011.4
20260506002955 21 257 8.0 14.5 0.00 0.61 0.00 35 1011.4
20260506002903 21 251 8.0 11.3 0.00 0.61 0.00 36 1011.4
20260506002859 21 272 8.0 11.3 0.00 0.61 0.00 36 1011.4
20260506002651 21 238 8.0 11.3 0.00 0.61 0.00 37 1011.4
20260506002544 21 244 8.0 11.3 0.00 0.61 0.00 37 1011.4
20260506002504 21 223 8.0 17.7 0.00 0.61 0.00 37 1011.4
20260506002500 21 260 8.0 17.7 0.00 0.61 0.00 37 1011.4
20260506002456 21 198 8.0 17.7 0.00 0.61 0.00 36 1011.4
20260506002452 21 145 8.0 17.7 0.00 0.61 0.00 36 1011.4
20260506002237 21 32 8.0 17.7 0.00 0.61 0.00 36 1011.4
20260506002031 21 238 8.0 17.7 0.00 0.61 0.00 36 1011.4
20260506002004 21 312 6.4 17.7 0.00 0.61 0.00 36 1011.4
20260506002000 21 282 6.4 17.7 0.00 0.61 0.00 37 1011.4
20260506001955 21 169 6.4 17.7 0.00 0.61 0.00 37 1011.4
20260506001951 21 250 6.4 17.7 0.00 0.61 0.00 36 1011.4
20260506001947 21 122 6.4 17.7 0.00 0.61 0.00 36 1011.4
20260506001543 21 246 6.4 16.1 0.00 0.61 0.00 36 1011.4
20260506001539 21 321 6.4 17.7 0.00 0.61 0.00 36 1011.4
20260506001534 21 263 6.4 16.1 0.00 0.61 0.00 36 1011.4
20260506001329 21 267 6.4 16.1 0.00 0.61 0.00 36 1011.4
20260506001233 22 250 4.8 17.7 0.00 0.61 0.00 35 1011.4
20260506001228 22 321 6.4 16.1 0.00 0.61 0.00 35 1011.4
20260506001128 22 282 6.4 16.1 0.00 0.61 0.00 35 1011.4
20260506001107 22 280 6.4 17.7 0.00 0.61 0.00 36 1011.4
20260506000926 22 236 4.8 17.7 0.00 0.61 0.00 35 1011.4
20260506000826 22 257 4.8 17.7 0.00 0.61 0.00 36 1011.4
20260506000726 22 300 4.8 17.7 0.00 0.61 0.00 35 1011.4
20260506000634 22 286 4.8 17.7 0.00 0.61 0.00 35 1011.4
20260506000630 22 256 4.8 17.7 0.00 0.61 0.00 35 1011.4
20260506000502 22 337 4.8 17.7 0.00 0.61 0.00 35 1011.4
20260506000423 22 285 4.8 17.7 0.00 0.61 0.00 35 1011.4
20260506000323 22 106 4.8 17.7 0.00 0.61 0.00 35 1011.4
20260506000222 22 303 4.8 17.7 0.00 0.61 0.00 35 1011.4
20260506000130 22 241 4.8 16.1 0.00 0.61 0.00 36 1011.4
20260506000126 22 277 4.8 17.7 0.00 0.61 0.00 35 1011.4
20260506000002 22 160 3.2 14.5 0.00 0.61 0.00 36 1011.4
20260505235921 22 257 3.2 14.5 0.00 0.61 0.00 35 1011.4
20260505235821 22 297 3.2 14.5 0.00 0.61 0.00 35 1011.4
20260505235732 22 328 3.2 14.5 0.00 0.61 0.00 35 1011.4
20260505235721 22 264 3.2 14.5 0.00 0.61 0.00 35 1011.4
20260505235621 22 267 3.2 14.5 0.00 0.61 0.00 35 1011.4
20260505235607 22 328 3.2 14.5 0.00 0.61 0.00 35 1011.4
20260505235416 22 274 3.2 14.5 0.00 0.61 0.00 35 1011.4
20260505235316 22 314 3.2 8.0 0.00 0.61 0.00 36 1011.4
20260505235224 22 165 3.2 11.3 0.00 0.61 0.00 37 1011.4
20260505235220 22 304 3.2 8.0 0.00 0.61 0.00 36 1011.4
20260505235005 21 154 6.4 11.3 0.00 0.61 0.00 37 1011.4
20260505234959 21 154 6.4 11.3 0.00 0.61 0.00 37 1011.4
20260505234903 21 154 6.4 11.3 0.00 0.61 0.00 37 1011.4
20260505234801 21 154 6.4 11.3 0.00 0.61 0.00 37 1011.5
20260505234646 21 136 6.4 11.3 0.00 0.61 0.00 37 1011.5
20260505234543 21 136 6.4 11.3 0.00 0.61 0.00 36 1011.5
20260505234500 21 135 6.4 12.9 0.00 0.61 0.00 36 1011.5
20260505234444 21 134 6.4 14.5 0.00 0.61 0.00 36 1011.5
20260505234350 21 143 6.4 14.5 0.00 0.61 0.00 36 1011.5
20260505234346 21 177 6.4 14.5 0.00 0.61 0.00 36 1011.5
20260505234141 21 156 6.4 14.5 0.00 0.61 0.00 37 1011.5
20260505234041 21 204 6.4 14.5 0.00 0.61 0.00 37 1011.5
20260505234000 21 213 4.8 14.5 0.00 0.61 0.00 37 1011.5
20260505233941 21 236 4.8 14.5 0.00 0.61 0.00 37 1011.5
20260505233840 21 238 4.8 14.5 0.00 0.61 0.00 37 1011.5
20260505233748 21 314 4.8 14.5 0.00 0.61 0.00 36 1011.5
20260505233744 21 274 4.8 14.5 0.00 0.61 0.00 36 1011.5
20260505233549 22 261 4.8 9.7 0.00 0.61 0.00 36 1011.5
20260505233545 22 316 4.8 14.5 0.00 0.61 0.00 36 1011.5
20260505233540 22 309 4.8 14.5 0.00 0.61 0.00 36 1011.5
20260505233336 22 335 4.8 9.7 0.00 0.61 0.00 36 1011.5
20260505233236 22 241 4.8 9.7 0.00 0.61 0.00 35 1011.6
20260505233136 22 19 4.8 8.0 0.00 0.61 0.00 36 1011.6
20260505233036 22 335 4.8 8.0 0.00 0.61 0.00 37 1011.6
20260505232936 22 292 4.8 8.0 0.00 0.61 0.00 37 1011.6
20260505232836 22 163 4.8 8.0 0.00 0.61 0.00 37 1011.6
20260505232736 22 274 4.8 8.0 0.00 0.61 0.00 36 1011.6
20260505232633 22 299 4.8 8.0 0.00 0.61 0.00 37 1011.6
20260505232533 22 240 4.8 8.0 0.00 0.61 0.00 37 1011.6
20260505232500 22 292 4.8 9.7 0.00 0.61 0.00 37 1011.6
20260505232433 21 317 4.8 9.7 0.00 0.61 0.00 37 1011.6
20260505232333 21 269 4.8 9.7 0.00 0.61 0.00 37 1011.6
20260505232233 21 211 4.8 9.7 0.00 0.61 0.00 37 1011.6
20260505232129 21 25 4.8 9.7 0.00 0.61 0.00 37 1011.6
20260505232028 22 87 4.8 9.7 0.00 0.61 0.00 36 1011.6
20260505232000 21 75 4.8 9.7 0.00 0.61 0.00 36 1011.6
20260505231926 22 335 4.8 9.7 0.00 0.61 0.00 36 1011.6
20260505231826 21 201 4.8 9.7 0.00 0.61 0.00 35 1011.8
20260505231724 21 14 4.8 9.7 0.00 0.61 0.00 36 1011.8
20260505231628 21 14 4.8 9.7 0.00 0.61 0.00 35 1011.8
20260505231623 21 67 4.8 8.0 0.00 0.61 0.00 36 1011.8
20260505231457 21 266 4.8 8.0 0.00 0.61 0.00 35 1011.8
20260505231415 21 6 4.8 8.0 0.00 0.61 0.00 35 1011.8
20260505231310 21 75 4.8 8.0 0.00 0.61 0.00 36 1011.8
20260505231208 21 117 4.8 8.0 0.00 0.61 0.00 35 1011.8
20260505231109 21 91 4.8 8.0 0.00 0.61 0.00 36 1011.8
20260505231008 21 227 4.8 8.0 0.00 0.61 0.00 36 1011.8
20260505230957 21 251 4.8 8.0 0.00 0.61 0.00 36 1011.8
20260505230909 21 85 4.8 8.0 0.00 0.61 0.00 36 1011.8
20260505230803 21 155 4.8 8.0 0.00 0.61 0.00 37 1011.8
20260505230703 21 143 4.8 8.0 0.00 0.61 0.00 36 1011.8
20260505230603 21 304 4.8 11.3 0.00 0.61 0.00 37 1011.8
20260505230512 21 251 4.8 11.3 0.00 0.61 0.00 37 1011.8
20260505230508 21 168 4.8 11.3 0.00 0.61 0.00 37 1011.8
20260505230503 21 167 4.8 11.3 0.00 0.61 0.00 37 1011.8
20260505230258 21 191 4.8 11.3 0.00 0.61 0.00 37 1011.9
20260505230159 21 100 4.8 11.3 0.00 0.61 0.00 36 1011.9
20260505230055 21 138 4.8 11.3 0.00 0.61 0.00 36 1011.9
20260505225954 21 165 4.8 11.3 0.00 0.61 0.00 36 1011.9
20260505225850 21 119 4.8 11.3 0.00 0.61 0.00 37 1011.9
20260505225751 21 62 4.8 11.3 0.00 0.61 0.00 37 1011.9
20260505225646 21 143 4.8 11.3 0.00 0.61 0.00 37 1011.9
20260505225545 21 130 4.8 11.3 0.00 0.61 0.00 38 1011.9
20260505225443 21 84 4.8 11.3 0.00 0.61 0.00 37 1011.9
20260505225438 21 305 4.8 11.3 0.00 0.61 0.00 37 1011.9
20260505225233 21 272 4.8 11.3 0.00 0.61 0.00 37 1011.9
20260505225134 21 233 4.8 11.3 0.00 0.61 0.00 38 1011.9
20260505225047 21 278 4.8 9.7 0.00 0.61 0.00 38 1011.9
20260505225043 21 294 4.8 11.3 0.00 0.61 0.00 38 1011.9
20260505225038 21 314 4.8 11.3 0.00 0.61 0.00 38 1011.9
20260505224833 21 317 4.8 9.7 0.00 0.61 0.00 38 1011.9
20260505224733 21 234 4.8 9.7 0.00 0.61 0.00 38 1012.0
20260505224638 20 275 4.8 9.7 0.00 0.61 0.00 38 1012.0
20260505224634 21 198 4.8 9.7 0.00 0.61 0.00 38 1012.0
20260505224450 20 325 4.8 9.7 0.00 0.61 0.00 38 1012.0
20260505224428 20 280 4.8 9.7 0.00 0.61 0.00 39 1012.0
20260505224338 20 112 4.8 9.7 0.00 0.61 0.00 39 1012.0
20260505224334 20 174 4.8 9.7 0.00 0.61 0.00 39 1012.0
20260505224135 20 40 4.8 9.7 0.00 0.61 0.00 39 1012.0
20260505224131 20 110 4.8 9.7 0.00 0.61 0.00 39 1012.0
20260505223949 20 350 4.8 8.0 0.00 0.61 0.00 39 1012.0
20260505223926 20 34 4.8 8.0 0.00 0.61 0.00 39 1012.0
20260505223826 20 143 4.8 8.0 0.00 0.61 0.00 39 1012.0
20260505223723 20 111 4.8 8.0 0.00 0.61 0.00 39 1012.0
20260505223651 20 96 4.8 8.0 0.00 0.61 0.00 38 1012.0
20260505223647 20 43 4.8 8.0 0.00 0.61 0.00 39 1012.0
20260505223642 20 96 4.8 9.7 0.00 0.61 0.00 40 1012.1
20260505223638 20 93 4.8 8.0 0.00 0.61 0.00 39 1012.0
20260505223528 20 57 4.8 8.0 0.00 0.61 0.00 38 1012.0
20260505223222 20 157 4.8 12.9 0.00 0.61 0.00 39 1012.1
20260505223218 20 139 4.8 12.9 0.00 0.61 0.00 40 1012.1
20260505223118 20 12 4.8 12.9 0.00 0.61 0.00 39 1012.1
20260505223055 20 124 4.8 12.9 0.00 0.61 0.00 40 1012.1
20260505222913 20 194 4.8 12.9 0.00 0.61 0.00 39 1012.1
20260505222809 20 260 4.8 12.9 0.00 0.61 0.00 39 1012.1
20260505222708 20 272 4.8 12.9 0.00 0.61 0.00 40 1012.1
20260505222608 20 286 4.8 12.9 0.00 0.61 0.00 39 1012.1
20260505222506 20 277 4.8 12.9 0.00 0.61 0.00 39 1012.1
20260505222450 20 282 4.8 12.9 0.00 0.61 0.00 40 1012.1
20260505222404 20 294 4.8 12.9 0.00 0.61 0.00 39 1012.1
20260505222313 20 234 4.8 14.5 0.00 0.61 0.00 40 1012.1
20260505222309 20 48 4.8 12.9 0.00 0.61 0.00 39 1012.1
20260505222103 20 137 4.8 14.5 0.00 0.61 0.00 41 1012.1
20260505222003 20 59 6.4 14.5 0.00 0.61 0.00 40 1012.1
20260505221949 20 58 6.4 14.5 0.00 0.61 0.00 39 1012.1
20260505221903 20 172 6.4 14.5 0.00 0.61 0.00 40 1012.1
20260505221803 20 352 6.4 14.5 0.00 0.61 0.00 40 1012.5
20260505221658 20 155 6.4 14.5 0.00 0.61 0.00 41 1012.5
20260505221558 20 211 6.4 14.5 0.00 0.61 0.00 41 1012.5
20260505221443 20 212 6.4 14.5 0.00 0.61 0.00 40 1012.5
20260505221349 20 269 6.4 14.5 0.00 0.61 0.00 40 1012.5
20260505221243 20 302 6.4 14.5 0.00 0.61 0.00 41 1012.5
20260505221143 20 252 6.4 11.3 0.00 0.61 0.00 40 1012.5
20260505221044 20 259 6.4 14.5 0.00 0.61 0.00 40 1012.5
20260505220944 20 277 6.4 14.5 0.00 0.61 0.00 41 1012.5
20260505220843 20 143 6.4 16.1 0.00 0.61 0.00 42 1012.5
20260505220743 20 120 6.4 19.3 0.00 0.61 0.00 41 1012.5
20260505220643 20 172 6.4 19.3 0.00 0.61 0.00 41 1012.5
20260505220543 20 210 6.4 19.3 0.00 0.61 0.00 42 1012.5
20260505220444 19 148 6.4 19.3 0.00 0.61 0.00 44 1012.5
20260505220343 19 61 6.4 19.3 0.00 0.61 0.00 42 1012.5
20260505220243 19 296 6.4 19.3 0.00 0.61 0.00 41 1012.6
20260505220143 19 85 6.4 19.3 0.00 0.61 0.00 41 1012.6
20260505220043 19 292 6.4 19.3 0.00 0.61 0.00 42 1012.6
20260505215943 20 301 4.8 19.3 0.00 0.61 0.00 41 1012.6
20260505215843 20 287 4.8 19.3 0.00 0.61 0.00 41 1012.6
20260505215752 20 262 4.8 12.9 0.00 0.61 0.00 41 1012.6
20260505215748 20 272 4.8 12.9 0.00 0.61 0.00 41 1012.6
20260505215543 20 285 4.8 12.9 0.00 0.61 0.00 41 1012.6
20260505215443 19 305 4.8 9.7 0.00 0.61 0.00 42 1012.6
20260505215343 19 283 4.8 9.7 0.00 0.61 0.00 42 1012.6
20260505215245 19 272 4.8 9.7 0.00 0.61 0.00 42 1012.6
20260505215240 19 306 4.8 9.7 0.00 0.61 0.00 43 1012.6
20260505215049 19 236 6.4 9.7 0.00 0.61 0.00 44 1012.6
20260505215045 19 307 4.8 9.7 0.00 0.61 0.00 44 1012.6
20260505215040 19 216 6.4 9.7 0.00 0.61 0.00 44 1012.6
20260505214836 19 261 6.4 9.7 0.00 0.61 0.00 44 1012.6
20260505214736 19 313 6.4 9.7 0.00 0.61 0.00 44 1012.7
20260505214636 19 277 6.4 11.3 0.00 0.61 0.00 44 1012.7
20260505214536 19 27 6.4 11.3 0.00 0.61 0.00 43 1012.7
20260505214442 19 27 6.4 11.3 0.00 0.61 0.00 43 1012.7
20260505214438 19 26 6.4 14.5 0.00 0.61 0.00 44 1012.7
20260505214434 19 26 6.4 14.5 0.00 0.61 0.00 44 1012.7
20260505214228 19 283 6.4 14.5 0.00 0.61 0.00 43 1012.7
20260505214128 19 312 6.4 14.5 0.00 0.61 0.00 43 1012.7
20260505214029 19 33 6.4 14.5 0.00 0.61 0.00 44 1012.7
20260505213946 20 305 4.8 14.5 0.00 0.61 0.00 43 1012.7
20260505213942 19 309 4.8 14.5 0.00 0.61 0.00 44 1012.7
20260505213929 19 323 4.8 14.5 0.00 0.61 0.00 44 1012.7
20260505213828 19 309 4.8 14.5 0.00 0.61 0.00 43 1012.7
20260505213818 19 53 4.8 14.5 0.00 0.61 0.00 43 1012.7
20260505213628 19 46 4.8 14.5 0.00 0.61 0.00 43 1012.7
20260505213547 20 327 4.8 14.5 0.00 0.61 0.00 43 1012.7
20260505213437 20 236 4.8 9.7 0.00 0.61 0.00 41 1012.9
20260505213433 20 320 4.8 8.0 0.00 0.61 0.00 42 1012.7
20260505213228 20 136 4.8 9.7 0.00 0.61 0.00 42 1012.9
20260505213128 19 122 4.8 12.9 0.00 0.61 0.00 43 1012.9
20260505213040 19 63 4.8 12.9 0.00 0.61 0.00 45 1012.9
20260505213035 19 96 4.8 12.9 0.00 0.61 0.00 43 1012.9
20260505213030 19 118 4.8 12.9 0.00 0.61 0.00 44 1012.9
20260505212826 19 51 4.8 12.9 0.00 0.61 0.00 44 1012.9
20260505212736 19 194 4.8 12.9 0.00 0.61 0.00 43 1012.9
20260505212732 19 142 4.8 12.9 0.00 0.61 0.00 44 1012.9
20260505212553 19 200 4.8 14.5 0.00 0.61 0.00 44 1012.9
20260505212526 19 93 4.8 12.9 0.00 0.61 0.00 44 1012.9
20260505212441 19 196 4.8 12.9 0.00 0.61 0.00 44 1012.9
20260505212437 19 27 4.8 14.5 0.00 0.61 0.00 43 1012.9
20260505212433 19 191 4.8 14.5 0.00 0.61 0.00 43 1012.9
20260505212428 19 77 4.8 14.5 0.00 0.61 0.00 45 1012.9
20260505212138 19 143 4.8 14.5 0.00 0.61 0.00 44 1012.9
20260505212134 19 165 4.8 14.5 0.00 0.61 0.00 43 1012.9
20260505212128 19 108 4.8 14.5 0.00 0.61 0.00 43 1012.9
20260505211816 19 234 4.8 14.5 0.00 0.61 0.00 44 1012.9
20260505211715 19 22 4.8 14.5 0.00 0.61 0.00 43 1012.9
20260505211615 19 66 4.8 14.5 0.00 0.61 0.00 44 1012.9
20260505211513 19 165 4.8 14.5 0.00 0.61 0.00 44 1012.9
20260505211439 19 191 4.8 14.5 0.00 0.61 0.00 44 1012.9
20260505211413 19 195 4.8 14.5 0.00 0.61 0.00 44 1012.9
20260505211311 19 189 4.8 14.5 0.00 0.61 0.00 43 1012.9
20260505211205 19 185 4.8 14.5 0.00 0.61 0.00 43 1012.9
20260505211106 19 101 4.8 14.5 0.00 0.61 0.00 45 1012.9
20260505211005 19 131 4.8 14.5 0.00 0.61 0.00 44 1012.9
20260505210940 19 154 4.8 11.3 0.00 0.61 0.00 44 1012.9
20260505210906 19 245 4.8 11.3 0.00 0.61 0.00 44 1012.9
20260505210806 19 69 4.8 11.3 0.00 0.61 0.00 45 1012.9
20260505210706 19 113 4.8 11.3 0.00 0.61 0.00 44 1012.9
20260505210605 19 175 4.8 11.3 0.00 0.61 0.00 44 1012.9
20260505210506 19 183 4.8 11.3 0.00 0.61 0.00 44 1012.9
20260505210439 19 182 4.8 11.3 0.00 0.61 0.00 44 1012.9
20260505210406 19 173 4.8 11.3 0.00 0.61 0.00 44 1012.9
20260505210306 19 223 4.8 12.9 0.00 0.61 0.00 44 1013.0
20260505210206 19 123 4.8 12.9 0.00 0.61 0.00 45 1013.0
20260505210106 19 194 4.8 12.9 0.00 0.61 0.00 45 1013.0
20260505210006 18 84 4.8 12.9 0.00 0.61 0.00 46 1013.0
20260505205940 18 111 4.8 12.9 0.00 0.61 0.00 46 1013.0
20260505205905 18 58 4.8 12.9 0.00 0.61 0.00 46 1013.0
20260505205806 18 183 4.8 12.9 0.00 0.61 0.00 44 1013.0
20260505205710 18 172 4.8 12.9 0.00 0.61 0.00 47 1013.0
20260505205706 18 89 4.8 12.9 0.00 0.61 0.00 45 1013.0
20260505205654 18 142 4.8 12.9 0.00 0.61 0.00 46 1013.0
20260505205650 18 161 4.8 12.9 0.00 0.61 0.00 46 1013.0
20260505205403 18 146 4.8 12.9 0.00 0.61 0.00 46 1013.0
20260505205305 18 43 4.8 12.9 0.00 0.61 0.00 48 1013.0
20260505205201 18 13 4.8 12.9 0.00 0.61 0.00 46 1013.0
20260505205155 18 342 4.8 12.9 0.00 0.61 0.00 46 1013.0
20260505204951 18 340 4.8 12.9 0.00 0.61 0.00 46 1013.0
20260505204940 18 357 4.8 12.9 0.00 0.61 0.00 46 1013.0
20260505204850 18 47 4.8 9.7 0.00 0.61 0.00 46 1013.0
20260505204751 18 58 4.8 9.7 0.00 0.61 0.00 47 1013.1
20260505204651 18 71 4.8 9.7 0.00 0.61 0.00 47 1013.1
20260505204551 18 181 4.8 9.7 0.00 0.61 0.00 46 1013.1
20260505204500 18 231 4.8 9.7 0.00 0.61 0.00 48 1013.1
20260505204456 18 205 4.8 9.7 0.00 0.61 0.00 47 1013.1
20260505204450 18 175 4.8 9.7 0.00 0.61 0.00 47 1013.1
20260505204245 18 253 4.8 9.7 0.00 0.61 0.00 46 1013.1
20260505204146 18 130 4.8 9.7 0.00 0.61 0.00 48 1013.1
20260505204046 18 49 4.8 9.7 0.00 0.61 0.00 48 1013.1
20260505203945 18 89 4.8 9.7 0.00 0.61 0.00 47 1013.1
20260505203940 18 96 4.8 8.0 0.00 0.61 0.00 47 1013.1
20260505203846 18 192 4.8 8.0 0.00 0.61 0.00 46 1013.1
20260505203740 18 85 4.8 8.0 0.00 0.61 0.00 46 1013.1
20260505203651 18 10 4.8 14.5 0.00 0.61 0.00 47 1013.1
20260505203647 18 92 4.8 8.0 0.00 0.61 0.00 47 1013.1
20260505203440 18 177 4.8 14.5 0.00 0.61 0.00 47 1013.1
20260505203341 18 194 4.8 14.5 0.00 0.61 0.00 47 1013.1
20260505203240 18 222 4.8 14.5 0.00 0.61 0.00 46 1013.1
20260505203138 18 204 4.8 14.5 0.00 0.61 0.00 47 1013.1
20260505203039 18 178 4.8 14.5 0.00 0.61 0.00 48 1013.1
20260505202938 18 143 4.8 14.5 0.00 0.61 0.00 48 1013.1
20260505202839 18 90 4.8 14.5 0.00 0.61 0.00 47 1013.1
20260505202738 18 123 4.8 14.5 0.00 0.61 0.00 48 1013.1
20260505202638 18 104 4.8 14.5 0.00 0.61 0.00 48 1013.1
20260505202608 18 161 4.8 11.3 0.00 0.64 0.00 48 1013.1
20260505202604 18 138 4.8 11.3 0.00 0.61 0.00 48 1013.1
20260505202455 18 228 4.8 11.3 0.00 0.69 0.00 48 1013.1
20260505202447 18 95 4.8 11.3 0.00 0.61 0.00 48 1013.1
20260505202217 18 38 4.8 11.3 0.00 0.71 0.00 47 1013.1
20260505202136 18 174 4.8 11.3 0.00 0.69 0.00 48 1013.1
20260505202045 18 300 4.8 11.3 0.00 0.71 0.00 48 1013.1
20260505201942 18 38 4.8 11.3 0.00 0.71 0.00 47 1013.1
20260505201836 18 44 4.8 11.3 0.00 0.74 0.00 49 1013.1
20260505201736 18 69 4.8 11.3 0.00 0.74 0.00 49 1013.3
20260505201634 18 172 4.8 11.3 0.00 0.74 0.00 48 1013.3
20260505201528 18 237 4.8 11.3 0.00 0.74 0.00 48 1013.3
20260505201437 18 260 4.8 9.7 0.00 0.74 0.00 49 1013.3
20260505201429 18 268 4.8 9.7 0.00 0.74 0.00 49 1013.3
20260505201328 18 84 4.8 9.7 0.00 0.74 0.00 49 1013.3
20260505201228 18 49 4.8 9.7 0.00 0.74 0.00 49 1013.3
20260505201128 18 103 4.8 9.7 0.00 0.74 0.00 50 1013.3
20260505201028 17 155 4.8 9.7 0.00 0.74 0.00 48 1013.3
20260505200928 17 117 4.8 9.7 0.00 0.74 0.00 51 1013.3
20260505200828 17 117 4.8 9.7 0.00 0.74 0.00 49 1013.3
20260505200729 17 90 4.8 9.7 0.00 0.74 0.00 49 1013.3
20260505200628 17 112 4.8 9.7 0.00 0.74 0.00 51 1013.3
20260505200528 17 108 4.8 9.7 0.00 0.74 0.00 50 1013.3
20260505200441 17 184 3.2 8.0 0.00 0.74 0.00 51 1013.4
20260505200437 17 112 4.8 9.7 0.00 0.74 0.00 51 1013.3
20260505200426 17 122 4.8 9.7 0.00 0.74 0.00 51 1013.3
20260505200326 17 169 4.8 9.7 0.00 0.74 0.00 50 1013.4
20260505200313 17 187 4.8 8.0 0.00 0.74 0.00 51 1013.4
20260505200125 17 145 4.8 8.0 0.00 0.74 0.00 51 1013.4
20260505200042 17 193 4.8 8.0 0.00 0.74 0.00 50 1013.4
20260505195921 17 196 3.2 8.0 0.00 0.74 0.00 52 1013.4
20260505195820 17 19 3.2 8.0 0.00 0.74 0.00 51 1013.4
20260505195721 17 157 3.2 8.0 0.00 0.74 0.00 52 1013.4
20260505195620 17 173 3.2 8.0 0.00 0.74 0.00 52 1013.4
20260505195520 17 123 3.2 8.0 0.00 0.74 0.00 54 1013.4
20260505195437 17 81 3.2 8.0 0.00 0.74 0.00 53 1013.4
20260505195420 17 105 3.2 8.0 0.00 0.74 0.00 53 1013.4
20260505195319 17 115 3.2 8.0 0.00 0.74 0.00 53 1013.4
20260505195216 17 152 3.2 6.4 0.00 0.74 0.00 54 1013.4
20260505195208 16 152 6.4 6.4 0.00 0.74 0.00 54 1013.4
20260505195113 17 359 3.2 6.4 0.00 0.74 0.00 54 1013.4
20260505195043 17 213 6.4 6.4 0.00 0.74 0.00 54 1013.4
20260505194909 16 255 6.4 8.0 0.00 0.74 0.00 55 1013.4
20260505194818 16 139 6.4 8.0 0.00 0.74 0.00 54 1013.5
20260505194814 16 144 6.4 8.0 0.00 0.74 0.00 55 1013.5
20260505194601 16 273 6.4 9.7 0.00 0.74 0.00 53 1013.5
20260505194459 16 134 6.4 11.3 0.00 0.74 0.00 53 1013.5
20260505194437 16 135 6.4 11.3 0.00 0.74 0.00 53 1013.5
20260505194356 16 165 6.4 11.3 0.00 0.74 0.00 53 1013.5
20260505194256 16 315 6.4 11.3 0.00 0.74 0.00 53 1013.5
20260505194155 16 313 6.4 12.9 0.00 0.74 0.00 53 1013.5
20260505194056 16 264 6.4 12.9 0.00 0.74 0.00 53 1013.5
20260505193955 16 6 4.8 12.9 0.00 0.74 0.00 54 1013.5
20260505193937 16 6 4.8 12.9 0.00 0.74 0.00 55 1013.5
20260505193848 16 294 4.8 12.9 0.00 0.74 0.00 54 1013.5
20260505193755 16 35 4.8 12.9 0.00 0.74 0.00 54 1013.5
20260505193751 16 258 4.8 12.9 0.00 0.74 0.00 53 1013.5
20260505193545 16 90 4.8 12.9 0.00 0.74 0.00 53 1013.5
20260505193446 16 119 4.8 12.9 0.00 0.74 0.00 54 1013.5
20260505193434 16 90 4.8 12.9 0.00 0.74 0.00 54 1013.5
20260505193355 16 300 4.8 9.7 0.00 0.74 0.00 54 1013.4
20260505193351 16 14 4.8 12.9 0.00 0.74 0.00 54 1013.5
20260505193146 16 265 4.8 9.7 0.00 0.74 0.00 54 1013.4
20260505193043 16 194 4.8 9.7 0.00 0.74 0.00 54 1013.4
20260505192943 16 180 4.8 9.7 0.00 0.74 0.00 55 1013.4
20260505192934 16 166 4.8 9.7 0.00 0.74 0.00 56 1013.4
20260505192843 16 189 4.8 9.7 0.00 0.74 0.00 55 1013.4
20260505192743 16 143 4.8 9.7 0.00 0.74 0.00 56 1013.4
20260505192643 16 181 4.8 9.7 0.00 0.74 0.00 56 1013.4
20260505192543 16 144 4.8 9.7 0.00 0.74 0.00 56 1013.4
20260505192443 16 96 4.8 9.7 0.00 0.74 0.00 58 1013.4
20260505192434 16 72 4.8 9.7 0.00 0.74 0.00 58 1013.4
20260505192343 16 216 4.8 9.7 0.00 0.74 0.00 59 1013.4
20260505192243 16 17 4.8 9.7 0.00 0.74 0.00 57 1013.4
20260505192145 16 23 4.8 9.7 0.00 0.74 0.00 57 1013.4
20260505192104 16 123 3.2 9.7 0.00 0.74 0.00 57 1013.4
20260505192100 16 292 3.2 9.7 0.00 0.74 0.00 56 1013.4
20260505192055 16 38 4.8 9.7 0.00 0.74 0.00 57 1013.4
20260505191945 16 122 3.2 9.7 0.00 0.74 0.00 57 1013.4
20260505191741 16 308 3.2 9.7 0.00 0.74 0.00 56 1013.4
20260505191641 15 326 3.2 8.0 0.00 0.74 0.00 58 1013.4
20260505191540 15 115 3.2 8.0 0.00 0.74 0.00 58 1013.4
20260505191438 15 96 3.2 8.0 0.00 0.74 0.00 59 1013.4
20260505191432 15 96 3.2 8.0 0.00 0.74 0.00 60 1013.4
20260505191358 15 179 4.8 14.5 0.00 0.74 0.00 58 1013.4
20260505191354 15 90 3.2 8.0 0.00 0.74 0.00 59 1013.4
20260505191350 15 49 4.8 8.0 0.00 0.74 0.00 60 1013.4
20260505191346 15 90 3.2 8.0 0.00 0.74 0.00 58 1013.4
20260505191235 15 9 3.2 8.0 0.00 0.74 0.00 58 1013.4
20260505191126 15 100 4.8 8.0 0.00 0.74 0.00 59 1013.4
20260505191122 15 122 4.8 8.0 0.00 0.74 0.00 59 1013.4
20260505191117 15 179 4.8 14.5 0.00 0.74 0.00 58 1013.4
20260505191113 15 52 3.2 8.0 0.00 0.74 0.00 59 1013.4
20260505191108 15 57 4.8 6.4 0.00 0.74 0.00 60 1013.4
20260505190643 15 121 4.8 8.0 0.00 0.74 0.00 59 1013.4
20260505190638 15 161 4.8 8.0 0.00 0.74 0.00 59 1013.4
20260505190330 15 178 4.8 16.1 0.00 0.74 0.00 58 1013.4
20260505190230 15 178 4.8 16.1 0.00 0.74 0.00 58 1013.4
20260505190138 15 296 4.8 16.1 0.00 0.74 0.00 59 1013.4
20260505190134 15 212 4.8 16.1 0.00 0.74 0.00 58 1013.4
20260505185928 15 296 3.2 16.1 0.00 0.74 0.00 60 1013.4
20260505185828 15 80 3.2 16.1 0.00 0.74 0.00 59 1013.4
20260505185723 15 65 3.2 16.1 0.00 0.74 0.00 59 1013.4
20260505185618 15 63 3.2 16.1 0.00 0.74 0.00 59 1013.4
20260505185516 15 315 3.2 16.1 0.00 0.74 0.00 59 1013.4
20260505185427 15 317 3.2 16.1 0.00 0.74 0.00 59 1013.4
20260505185415 15 315 3.2 9.7 0.00 0.74 0.00 60 1013.4
20260505185325 15 296 3.2 8.0 0.00 0.74 0.00 60 1013.4
20260505185321 15 221 3.2 8.0 0.00 0.74 0.00 60 1013.4
20260505185101 15 278 3.2 8.0 0.00 0.74 0.00 61 1013.4
20260505185001 14 192 3.2 8.0 0.00 0.74 0.00 62 1013.4
20260505184927 14 194 3.2 8.0 0.00 0.74 0.00 62 1013.4
20260505184901 14 194 3.2 8.0 0.00 0.74 0.00 62 1013.4
20260505184758 14 119 3.2 8.0 0.00 0.74 0.00 63 1013.5
20260505184701 14 82 3.2 8.0 0.00 0.74 0.00 65 1013.5
20260505184656 13 148 3.2 8.0 0.00 0.74 0.00 64 1013.5
20260505184558 14 36 3.2 8.0 0.00 0.74 0.00 64 1013.5
20260505184530 13 213 3.2 8.0 0.00 0.74 0.00 64 1013.5
20260505184358 13 142 3.2 8.0 0.00 0.74 0.00 63 1013.5
20260505184251 13 157 3.2 8.0 0.00 0.74 0.00 63 1013.5
20260505184151 13 175 3.2 8.0 0.00 0.74 0.00 63 1013.5
20260505184051 13 174 3.2 8.0 0.00 0.74 0.00 64 1013.5
20260505183958 13 197 4.8 8.0 0.00 0.74 0.00 63 1013.5
20260505183953 13 196 4.8 8.0 0.00 0.74 0.00 63 1013.5
20260505183948 13 216 4.8 8.0 0.00 0.74 0.00 63 1013.5
20260505183738 13 275 4.8 8.0 0.00 0.74 0.00 62 1013.5
20260505183631 13 275 4.8 8.0 0.00 0.74 0.00 62 1013.5
20260505183530 13 297 4.8 8.0 0.00 0.74 0.00 62 1013.5
20260505183425 13 284 4.8 8.0 0.00 0.74 0.00 62 1013.5
20260505183326 13 29 4.8 9.7 0.00 0.74 0.00 62 1013.5
20260505183222 13 29 4.8 12.9 0.00 0.74 0.00 62 1013.5
20260505183123 13 342 4.8 12.9 0.00 0.74 0.00 63 1013.5
20260505183023 13 119 4.8 12.9 0.00 0.74 0.00 63 1013.5
20260505182918 13 195 3.2 12.9 0.00 0.74 0.00 63 1013.5
20260505182818 13 310 3.2 12.9 0.00 0.74 0.00 63 1013.5
20260505182718 13 294 3.2 12.9 0.00 0.74 0.00 62 1013.5
20260505182639 13 295 3.2 12.9 0.00 0.74 0.00 62 1013.5
20260505182635 13 47 3.2 12.9 0.00 0.74 0.00 63 1013.5
20260505182525 13 280 3.2 12.9 0.00 0.74 0.00 63 1013.5
20260505182520 13 246 3.2 12.9 0.00 0.74 0.00 62 1013.5
20260505182313 13 313 3.2 12.9 0.00 0.74 0.00 62 1013.5
20260505182225 13 315 3.2 11.3 0.00 0.74 0.00 63 1013.5
20260505182221 13 292 4.8 11.3 0.00 0.74 0.00 64 1013.5
20260505182217 13 324 3.2 11.3 0.00 0.74 0.00 63 1013.5
20260505182030 13 283 4.8 11.3 0.00 0.74 0.00 63 1013.5
20260505181908 13 248 4.8 8.0 0.00 0.74 0.00 64 1013.5
20260505181808 13 260 4.8 8.0 0.00 0.74 0.00 65 1013.3
20260505181708 13 344 4.8 8.0 0.00 0.74 0.00 65 1013.3
20260505181608 13 344 4.8 8.0 0.00 0.74 0.00 65 1013.3
20260505181503 13 344 4.8 9.7 0.00 0.74 0.00 66 1013.3
20260505181425 13 343 4.8 9.7 0.00 0.74 0.00 66 1013.3
20260505181403 13 344 4.8 9.7 0.00 0.74 0.00 66 1013.3
20260505181308 13 1 4.8 9.7 0.00 0.74 0.00 64 1013.3
20260505181304 13 344 4.8 9.7 0.00 0.74 0.00 65 1013.3
20260505181058 13 86 4.8 9.7 0.00 0.74 0.00 65 1013.3
20260505180958 13 51 3.2 9.7 0.00 0.74 0.00 65 1013.3
20260505180917 13 75 3.2 9.7 0.00 0.74 0.00 65 1013.3
20260505180858 13 81 3.2 9.7 0.00 0.74 0.00 65 1013.3
20260505180751 13 321 3.2 9.7 0.00 0.74 0.00 65 1013.3
20260505180651 13 166 3.2 9.7 0.00 0.74 0.00 64 1013.3
20260505180451 13 260 3.2 8.0 0.00 0.74 0.00 65 1013.3
20260505180417 13 253 3.2 8.0 0.00 0.74 0.00 65 1013.3
20260505180348 13 234 3.2 8.0 0.00 0.74 0.00 66 1013.3
20260505180248 13 208 3.2 8.0 0.00 0.74 0.00 67 1013.3
20260505180148 13 80 3.2 8.0 0.00 0.74 0.00 67 1013.3
20260505180058 13 268 4.8 8.0 0.00 0.74 0.00 69 1013.3
20260505180053 13 62 3.2 8.0 0.00 0.74 0.00 69 1013.3
20260505175914 13 267 4.8 8.0 0.00 0.74 0.00 70 1013.3
20260505175848 13 311 4.8 8.0 0.00 0.74 0.00 71 1013.3
20260505175758 13 43 4.8 8.0 0.00 0.74 0.00 72 1013.3
20260505175753 13 43 4.8 8.0 0.00 0.74 0.00 71 1013.3
20260505175557 13 16 4.8 8.0 0.00 0.74 0.00 71 1013.3
20260505175553 13 16 4.8 8.0 0.00 0.74 0.00 71 1013.3
20260505175414 13 56 4.8 8.0 0.00 0.74 0.00 71 1013.3
20260505175407 13 130 4.8 8.0 0.00 0.74 0.00 72 1013.3
20260505175403 13 155 4.8 9.7 0.00 0.74 0.00 72 1013.3
20260505175359 13 198 4.8 8.0 0.00 0.74 0.00 71 1013.3
20260505175048 13 154 4.8 9.7 0.00 0.74 0.00 71 1013.3
20260505174946 12 192 3.2 9.7 0.00 0.74 0.00 73 1013.3
20260505174914 12 111 3.2 9.7 0.00 0.74 0.00 75 1013.3
20260505174844 12 43 3.2 9.7 0.00 0.74 0.00 74 1013.3
20260505174748 12 336 3.2 9.7 0.00 0.74 0.00 74 1013.0
20260505174744 12 32 3.2 9.7 0.00 0.74 0.00 74 1013.0
20260505174538 12 76 3.2 9.7 0.00 0.74 0.00 75 1013.0
20260505174450 12 342 3.2 9.7 0.00 0.74 0.00 74 1013.0
20260505174446 12 20 3.2 9.7 0.00 0.74 0.00 75 1013.0
20260505174441 12 348 3.2 9.7 0.00 0.74 0.00 74 1013.0
20260505174237 12 342 3.2 9.7 0.00 0.74 0.00 74 1013.0
20260505174137 12 33 3.2 9.7 0.00 0.74 0.00 74 1013.0
20260505174036 12 161 3.2 9.7 0.00 0.74 0.00 74 1013.0
20260505173934 12 124 3.2 8.0 0.00 0.74 0.00 75 1013.0
20260505173906 12 147 3.2 8.0 0.00 0.74 0.00 74 1013.0
20260505173825 12 169 3.2 8.0 0.00 0.74 0.00 74 1013.0
20260505173733 12 215 3.2 8.0 0.00 0.74 0.00 73 1013.0
20260505173729 12 158 3.2 8.0 0.00 0.74 0.00 73 1013.0
20260505173523 12 215 3.2 8.0 0.00 0.74 0.00 73 1013.0
20260505173420 12 163 3.2 8.0 0.00 0.74 0.00 74 1013.0
20260505173407 12 164 3.2 8.0 0.00 0.74 0.00 75 1013.0
20260505173321 12 145 3.2 8.0 0.00 0.74 0.00 75 1013.0
20260505173218 12 181 3.2 8.0 0.00 0.74 0.00 75 1013.0
20260505173118 11 169 3.2 8.0 0.00 0.74 0.00 75 1013.0
20260505173018 11 170 3.2 8.0 0.00 0.74 0.00 75 1013.0
20260505172924 11 25 3.2 6.4 0.00 0.74 0.00 77 1013.0
20260505172918 11 171 3.2 8.0 0.00 0.74 0.00 75 1013.0
20260505172907 11 170 3.2 8.0 0.00 0.74 0.00 75 1013.0
20260505172818 11 176 3.2 8.0 0.00 0.74 0.00 75 1013.0
20260505172759 11 223 3.2 6.4 0.00 0.74 0.00 76 1013.0
20260505172618 11 166 3.2 6.4 0.00 0.74 0.00 77 1013.0
20260505172538 11 181 3.2 6.4 0.00 0.74 0.00 76 1013.0
20260505172534 11 22 3.2 6.4 0.00 0.74 0.00 77 1013.0
20260505172528 11 22 3.2 6.4 0.00 0.74 0.00 77 1013.0
20260505172213 11 181 3.2 6.4 0.00 0.74 0.00 76 1013.0
20260505172111 11 232 3.2 6.4 0.00 0.74 0.00 77 1013.0
20260505172010 11 302 3.2 6.4 0.00 0.74 0.00 77 1013.0
20260505171913 11 273 3.2 6.4 0.00 0.74 0.00 78 1013.0
20260505171907 11 274 3.2 6.4 0.00 0.74 0.00 78 1013.0
20260505171810 11 274 3.2 6.4 0.00 0.74 0.00 77 1013.0
20260505171710 11 280 3.2 6.4 0.00 0.74 0.00 77 1013.0
20260505171611 11 181 3.2 6.4 0.00 0.74 0.00 77 1013.0
20260505171510 11 181 3.2 6.4 0.00 0.74 0.00 77 1013.0
20260505171406 11 179 3.2 6.4 0.00 0.74 0.00 78 1013.0
20260505171309 11 178 3.2 6.4 0.00 0.74 0.00 78 1013.0
20260505171208 10 179 3.2 6.4 0.00 0.74 0.00 78 1013.0
20260505171106 10 179 3.2 6.4 0.00 0.74 0.00 78 1013.0
20260505171017 10 216 1.6 6.4 0.00 0.74 0.00 78 1013.0
20260505171013 10 183 1.6 6.4 0.00 0.74 0.00 78 1013.0
20260505171009 10 181 1.6 6.4 0.00 0.74 0.00 78 1013.0
20260505171004 10 218 1.6 6.4 0.00 0.74 0.00 78 1013.0
20260505170653 10 180 1.6 6.4 0.00 0.74 0.00 78 1013.0
20260505170554 10 178 1.6 6.4 0.00 0.74 0.00 78 1013.0
20260505170451 10 225 1.6 6.4 0.00 0.74 0.00 79 1013.0
20260505170348 10 225 1.6 6.4 0.00 0.74 0.00 78 1013.0
20260505170248 10 227 1.6 6.4 0.00 0.74 0.00 78 1012.9
20260505170145 10 193 1.6 6.4 0.00 0.74 0.00 80 1012.9
20260505170133 10 212 1.6 6.4 0.00 0.74 0.00 80 1012.9
20260505170128 10 115 1.6 4.8 0.00 0.74 0.00 80 1012.9
20260505165835 10 121 1.6 4.8 0.00 0.74 0.00 80 1012.9
20260505165735 10 121 1.6 4.8 0.00 0.74 0.00 80 1012.9
20260505165635 10 117 1.6 4.8 0.00 0.74 0.00 80 1012.9
20260505165535 10 117 1.6 4.8 0.00 0.74 0.00 80 1012.9
20260505165436 10 117 1.6 4.8 0.00 0.74 0.00 80 1012.9
20260505165330 10 185 1.6 4.8 0.00 0.74 0.00 80 1012.9
20260505165223 10 185 1.6 4.8 0.00 0.74 0.00 80 1012.9
20260505165114 10 185 1.6 4.8 0.00 0.74 0.00 80 1012.9
20260505165006 10 185 3.2 4.8 0.00 0.74 0.00 80 1012.9
20260505164906 10 185 3.2 4.8 0.00 0.74 0.00 80 1012.9
20260505164848 10 185 3.2 4.8 0.00 0.74 0.00 80 1012.9
20260505164803 10 185 3.2 6.4 0.00 0.74 0.00 81 1012.9
20260505164703 9 185 3.2 6.4 0.00 0.74 0.00 81 1012.9
20260505164621 9 185 3.2 6.4 0.00 0.74 0.00 80 1012.9
20260505164600 9 185 3.2 6.4 0.00 0.74 0.00 80 1012.9
20260505164500 9 185 3.2 6.4 0.00 0.74 0.00 80 1012.9
20260505164454 9 185 3.2 6.4 0.00 0.74 0.00 80 1012.9
20260505164216 9 185 3.2 6.4 0.00 0.74 0.00 80 1012.9
20260505164115 9 185 3.2 6.4 0.00 0.74 0.00 80 1012.9
20260505164008 9 185 3.2 6.4 0.00 0.74 0.00 80 1012.9
20260505163906 9 174 3.2 6.4 0.00 0.74 0.00 81 1012.9
20260505163847 9 173 3.2 6.4 0.00 0.74 0.00 81 1012.9
20260505163806 9 174 3.2 6.4 0.00 0.74 0.00 81 1012.9
20260505163703 9 173 3.2 6.4 0.00 0.74 0.00 81 1012.9
20260505163600 9 173 3.2 6.4 0.00 0.74 0.00 81 1012.9
20260505163458 9 169 3.2 6.4 0.00 0.74 0.00 81 1012.9
20260505163347 9 168 3.2 6.4 0.00 0.74 0.00 81 1012.9
20260505163256 9 170 3.2 6.4 0.00 0.74 0.00 81 1012.8
20260505163153 9 169 3.2 6.4 0.00 0.74 0.00 81 1012.8
20260505163053 9 170 3.2 6.4 0.00 0.74 0.00 81 1012.8
20260505162948 9 170 3.2 6.4 0.00 0.74 0.00 81 1012.8
20260505162844 9 169 3.2 6.4 0.00 0.74 0.00 81 1012.8
20260505162746 9 119 3.2 6.4 0.00 0.74 0.00 81 1012.8
20260505162638 9 104 3.2 6.4 0.00 0.74 0.00 81 1012.8
20260505162538 8 104 3.2 6.4 0.00 0.74 0.00 81 1012.8
20260505162438 8 103 3.2 6.4 0.00 0.74 0.00 81 1012.8
20260505162352 8 112 3.2 4.8 0.00 0.74 0.00 81 1012.8
20260505162342 8 112 3.2 4.8 0.00 0.74 0.00 81 1012.8
20260505162139 8 112 3.2 6.4 0.00 0.74 0.00 81 1012.8
20260505162031 8 112 3.2 8.0 0.00 0.74 0.00 81 1012.8
20260505161929 8 112 3.2 8.0 0.00 0.74 0.00 81 1012.8
20260505161821 8 112 3.2 8.0 0.00 0.74 0.00 81 1012.6
20260505161725 8 112 3.2 8.0 0.00 0.74 0.00 81 1012.6
20260505161626 8 112 3.2 8.0 0.00 0.74 0.00 81 1012.6
20260505161523 8 161 3.2 8.0 0.00 0.74 0.00 81 1012.6
20260505161423 8 161 3.2 8.0 0.00 0.74 0.00 81 1012.6
20260505161320 8 173 3.2 8.0 0.00 0.74 0.00 81 1012.6
20260505161201 8 173 3.2 8.0 0.00 0.74 0.00 81 1012.6
20260505161100 8 197 3.2 8.0 0.00 0.76 0.00 81 1012.6
20260505161001 8 200 1.6 6.4 0.00 0.76 0.00 81 1012.6
20260505160900 8 200 1.6 6.4 0.00 0.76 0.00 81 1012.6
20260505160809 8 200 1.6 6.4 0.00 0.76 0.00 81 1012.6
20260505160744 8 200 1.6 6.4 0.00 0.76 0.00 81 1012.6
20260505160641 8 200 1.6 6.4 0.00 0.76 0.00 81 1012.6
20260505160538 8 206 1.6 6.4 0.00 0.76 0.00 81 1012.6
20260505160433 8 84 1.6 6.4 0.00 0.76 0.00 81 1012.6
20260505160309 8 83 1.6 6.4 0.00 0.76 0.00 81 1012.5
20260505160225 8 83 1.6 6.4 0.00 0.76 0.00 81 1012.5
20260505160125 8 83 1.6 6.4 0.00 0.76 0.00 81 1012.5
20260505153344 8 154 1.6 6.4 0.00 0.81 0.00 81 1012.1
20260505153211 8 153 1.6 6.4 0.00 0.81 0.00 81 1012.1
20260505153109 8 214 1.6 6.4 0.00 0.81 0.00 81 1012.1
20260505153005 8 228 1.6 4.8 0.00 0.81 0.00 81 1012.1
20260505152903 8 228 1.6 4.8 0.00 0.81 0.00 82 1012.1
20260505152803 8 280 1.6 4.8 0.00 0.81 0.00 81 1012.1
20260505152734 8 280 1.6 4.8 0.00 0.81 0.00 81 1012.1
20260505152702 8 280 1.6 4.8 0.00 0.81 0.00 81 1012.1
20260505152652 8 280 1.6 4.8 0.00 0.81 0.00 81 1012.1
20260505152446 7 280 1.6 4.8 0.00 0.81 0.00 81 1012.1
20260505152345 7 280 1.6 4.8 0.00 0.81 0.00 81 1012.1
20260505152252 7 283 1.6 4.8 0.00 0.81 0.00 82 1012.1
20260505152242 7 280 1.6 4.8 0.00 0.81 0.00 82 1012.1
20260505152038 7 283 1.6 4.8 0.00 0.81 0.00 82 1012.1
20260505151938 7 283 3.2 4.8 0.00 0.81 0.00 81 1012.1
20260505151832 7 283 3.2 4.8 0.00 0.81 0.00 81 1012.1
20260505151723 7 283 3.2 6.4 0.00 0.81 0.00 82 1012.0
20260505151623 7 263 3.2 6.4 0.00 0.81 0.00 82 1012.0
20260505151518 7 263 3.2 6.4 0.00 0.81 0.00 82 1012.0
20260505151415 7 291 3.2 6.4 0.00 0.81 0.00 82 1012.0
20260505151312 7 291 3.2 6.4 0.00 0.81 0.00 82 1012.0
20260505151211 7 291 3.2 6.4 0.00 0.81 0.00 82 1012.0
20260505151110 7 291 3.2 6.4 0.00 0.81 0.00 82 1012.0
20260505151019 7 287 0.0 6.4 0.00 0.81 0.00 82 1012.0
20260505151015 7 287 3.2 6.4 0.00 0.81 0.00 82 1012.0
20260505150810 7 287 0.0 6.4 0.00 0.81 0.00 82 1012.0
20260505150711 7 288 0.0 6.4 0.00 0.81 0.00 82 1012.0
20260505150610 7 288 0.0 6.4 0.00 0.81 0.00 82 1012.0
20260505150510 7 288 0.0 6.4 0.00 0.81 0.00 82 1012.0
20260505150411 7 297 0.0 6.4 0.00 0.81 0.00 82 1012.0
20260505150308 7 297 0.0 4.8 0.00 0.81 0.00 82 1011.9
20260505150224 7 270 0.0 4.8 0.00 0.81 0.00 82 1011.9
20260505150208 7 270 0.0 4.8 0.00 0.81 0.00 81 1011.9
20260505140653 7 27 1.6 3.2 0.00 0.81 0.00 81 1011.5
20260505140607 7 27 1.6 3.2 0.00 0.81 0.00 81 1011.5
20260505140543 7 27 1.6 3.2 0.00 0.81 0.00 81 1011.5
20260505140430 7 27 1.6 3.2 0.00 0.81 0.00 81 1011.5
20260505140337 7 27 1.6 6.4 0.00 0.81 0.00 81 1011.3
20260505140330 7 27 1.6 6.4 0.00 0.81 0.00 81 1011.3
20260505140324 7 27 1.6 6.4 0.00 0.81 0.00 81 1011.3
20260505130248 7 194 0.0 6.4 0.00 0.81 0.00 81 1010.7
20260505130150 7 193 0.0 4.8 0.00 0.81 0.00 81 1010.7
20260505130146 7 193 0.0 6.4 0.00 0.81 0.00 81 1010.7
20260505125035 7 193 0.0 3.2 0.00 0.81 0.00 81 1010.7
20260505125005 7 193 0.0 3.2 0.00 0.81 0.00 81 1010.7
20260505124930 7 193 0.0 3.2 0.00 0.81 0.00 81 1010.7
20260505124810 7 194 0.0 3.2 0.00 0.81 0.00 81 1010.7
20260505124706 7 193 0.0 3.2 0.00 0.81 0.00 81 1010.7
20260505124605 7 194 0.0 3.2 0.00 0.81 0.00 81 1010.7
20260505124505 7 194 0.0 3.2 0.00 0.81 0.00 81 1010.7
20260505124456 7 194 0.0 3.2 0.00 0.81 0.00 81 1010.7
20260505124405 7 193 0.0 3.2 0.00 0.81 0.00 81 1010.7
20260505124258 7 193 0.0 3.2 0.00 0.81 0.00 81 1010.7
20260505124158 7 194 0.0 3.2 0.00 0.81 0.00 81 1010.7
20260505124058 7 194 0.0 3.2 0.00 0.81 0.00 81 1010.7
20260505123959 7 140 0.0 3.2 0.00 0.81 0.00 81 1010.7
20260505123954 7 141 0.0 3.2 0.00 0.81 0.00 81 1010.7
20260505123908 7 140 0.0 3.2 0.00 0.81 0.00 81 1010.7
20260505123904 7 141 0.0 3.2 0.00 0.81 0.00 81 1010.7
20260505123656 7 140 0.0 3.2 0.00 0.81 0.00 81 1010.7
20260505123555 7 141 0.0 3.2 0.00 0.81 0.00 81 1010.7
20260505123454 7 140 0.0 3.2 0.00 0.81 0.00 81 1010.7
20260505123343 7 140 0.0 3.2 0.00 0.81 0.00 81 1010.7
20260505123250 7 141 0.0 3.2 0.00 0.81 0.00 81 1010.7
20260505123246 7 140 0.0 3.2 0.00 0.81 0.00 81 1010.7
20260505123038 7 140 0.0 3.2 0.00 0.81 0.00 81 1010.7
20260505122944 7 140 0.0 3.2 0.00 0.81 0.00 81 1010.7
20260505122927 7 141 0.0 3.2 0.00 0.81 0.00 81 1010.7
20260505122822 7 140 0.0 3.2 0.00 0.81 0.00 81 1010.7
20260505122722 7 140 0.0 3.2 0.00 0.81 0.00 81 1010.7
20260505122608 7 140 0.0 3.2 0.00 0.81 0.00 81 1010.7
20260505122512 7 140 0.0 3.2 0.00 0.81 0.00 81 1010.7
20260505122508 7 140 0.0 3.2 0.00 0.81 0.00 81 1010.7
20260505122502 7 140 0.0 3.2 0.00 0.81 0.00 81 1010.7
20260505122259 7 140 0.0 3.2 0.00 0.81 0.00 81 1010.7
20260505122255 7 140 0.0 3.2 0.00 0.81 0.00 81 1010.7
20260505122028 7 140 0.0 3.2 0.00 0.81 0.00 81 1010.7
20260505121924 7 140 1.6 3.2 0.00 0.81 0.00 81 1010.7
20260505121806 7 140 1.6 3.2 0.00 0.81 0.00 81 1010.7
20260505121642 7 140 1.6 3.2 0.00 0.81 0.00 81 1010.7
20260505121636 7 140 1.6 3.2 0.00 0.81 0.00 81 1010.7
20260505121631 7 140 1.6 3.2 0.00 0.81 0.00 81 1010.7
20260505121403 7 140 1.6 3.2 0.00 0.81 0.00 81 1010.7
20260505121309 7 140 1.6 3.2 0.00 0.81 0.00 81 1010.7
20260505121210 7 140 1.6 3.2 0.00 0.81 0.00 81 1010.7
20260505121110 7 140 1.6 3.2 0.00 0.81 0.00 81 1010.7
20260505121010 7 140 1.6 4.8 0.00 0.81 0.00 81 1010.7
20260505120909 7 140 1.6 4.8 0.00 0.81 0.00 81 1010.7
20260505120845 7 140 1.6 4.8 0.00 0.81 0.00 81 1010.7
20260505120811 7 140 1.6 4.8 0.00 0.81 0.00 81 1010.7
20260505120703 7 140 1.6 4.8 0.00 0.81 0.00 81 1010.7
20260505120558 7 140 1.6 4.8 0.00 0.81 0.00 81 1010.7
20260505120552 7 140 1.6 4.8 0.00 0.81 0.00 81 1010.7
20260505120338 7 140 1.6 4.8 0.00 0.81 0.00 81 1010.7
20260505120243 7 140 1.6 4.8 0.00 0.81 0.00 81 1010.6
20260505120143 7 140 1.6 4.8 0.00 0.81 0.00 81 1010.6
20260505120040 7 183 1.6 4.8 0.00 0.81 0.00 81 1010.6
20260505115940 7 192 0.0 4.8 0.00 0.81 0.00 81 1010.6
20260505115840 7 192 0.0 4.8 0.00 0.81 0.00 81 1010.6
20260505115734 7 192 0.0 4.8 0.00 0.81 0.00 81 1010.6
20260505115633 6 192 0.0 4.8 0.00 0.81 0.00 81 1010.6
20260505115608 6 193 0.0 4.8 0.00 0.81 0.00 81 1010.6
20260505115521 6 192 0.0 4.8 0.00 0.81 0.00 81 1010.6
20260505115442 6 192 0.0 4.8 0.00 0.81 0.00 81 1010.6
20260505115320 6 193 0.0 4.8 0.00 0.81 0.00 81 1010.6
20260505115218 6 193 0.0 4.8 0.00 0.81 0.00 81 1010.6
20260505115116 6 192 0.0 4.8 0.00 0.81 0.00 81 1010.6
20260505115026 6 192 0.0 4.8 0.00 0.81 0.00 81 1010.6
20260505115022 6 198 0.0 3.2 0.00 0.81 0.00 81 1010.5
20260505115018 6 192 0.0 4.8 0.00 0.81 0.00 81 1010.6
20260505114907 6 196 0.0 4.8 0.00 0.81 0.00 81 1010.6
20260505114647 6 198 0.0 3.2 0.00 0.81 0.00 81 1010.5
20260505114527 6 198 0.0 3.2 0.00 0.81 0.00 81 1010.5
20260505114420 6 198 0.0 3.2 0.00 0.81 0.00 81 1010.5
20260505114415 6 198 0.0 3.2 0.00 0.81 0.00 81 1010.5
20260505114203 6 198 0.0 0.0 0.00 0.81 0.00 81 1010.5
20260505114046 6 198 0.0 0.0 0.00 0.81 0.00 81 1010.5
20260505113914 6 198 0.0 0.0 0.00 0.81 0.00 81 1010.5
20260505113815 6 198 0.0 0.0 0.00 0.81 0.00 81 1010.5
20260505113703 6 198 0.0 1.6 0.00 0.81 0.00 81 1010.5
20260505113528 6 198 0.0 1.6 0.00 0.81 0.00 81 1010.5
20260505113521 6 198 0.0 3.2 0.00 0.81 0.00 81 1010.6
20260505113428 6 198 0.0 1.6 0.00 0.81 0.00 81 1010.5
20260505113356 6 198 0.0 3.2 0.00 0.81 0.00 81 1010.6
20260505113152 6 198 0.0 3.2 0.00 0.81 0.00 81 1010.6
20260505113125 6 198 0.0 3.2 0.00 0.81 0.00 81 1010.6
20260505112943 6 198 0.0 3.2 0.00 0.81 0.00 81 1010.6
20260505112854 6 198 0.0 3.2 0.00 0.81 0.00 81 1010.6
20260505112738 6 198 0.0 3.2 0.00 0.81 0.00 81 1010.6
20260505112633 6 198 0.0 3.2 0.00 0.81 0.00 81 1010.6
20260505112509 6 198 0.0 3.2 0.00 0.81 0.00 81 1010.6
20260505112400 6 198 0.0 3.2 0.00 0.81 0.00 81 1010.6
20260505112259 6 198 0.0 0.0 0.00 0.81 0.00 81 1010.6
20260505112247 6 198 0.0 1.6 0.00 0.81 0.00 81 1010.6
20260505112153 6 198 0.0 3.2 0.00 0.81 0.00 81 1010.6
20260505112024 6 198 0.0 3.2 0.00 0.81 0.00 81 1010.6
20260505111916 6 198 0.0 3.2 0.00 0.81 0.00 81 1010.6
20260505111852 6 198 0.0 3.2 0.00 0.81 0.00 81 1010.7
20260505111721 6 198 0.0 3.2 0.00 0.81 0.00 81 1010.7
20260505111638 6 198 0.0 3.2 0.00 0.81 0.00 81 1010.7
20260505111530 6 198 0.0 3.2 0.00 0.81 0.00 81 1010.7
20260505111451 6 198 0.0 3.2 0.00 0.81 0.00 81 1010.7
20260505111403 6 198 0.0 3.2 0.00 0.81 0.00 81 1010.7
20260505111326 6 198 0.0 3.2 0.00 0.81 0.00 81 1010.7
20260505111145 6 198 0.0 3.2 0.00 0.81 0.00 81 1010.7
20260505111045 6 198 0.0 1.6 0.00 0.81 0.00 81 1010.7
20260505110939 6 198 0.0 1.6 0.00 0.81 0.00 81 1010.7
20260505110834 6 198 0.0 1.6 0.00 0.81 0.00 81 1010.7
20260505110708 6 198 0.0 1.6 0.00 0.81 0.00 81 1010.7
20260505110602 6 198 0.0 1.6 0.00 0.81 0.00 81 1010.7
20260505110457 6 198 0.0 1.6 0.00 0.81 0.00 81 1010.7
20260505110334 6 198 0.0 1.6 0.00 0.81 0.00 81 1010.7
20260505110208 6 198 0.0 1.6 0.00 0.81 0.00 81 1010.7
20260505110128 6 198 0.0 1.6 0.00 0.81 0.00 81 1010.7
20260505102220 6 198 0.0 3.2 0.00 0.81 0.00 81 1010.8
20260505102146 6 198 0.0 3.2 0.00 0.81 0.00 81 1010.8
20260505102052 6 198 0.0 3.2 0.00 0.81 0.00 81 1010.8
20260505101948 6 198 0.0 3.2 0.00 0.81 0.00 81 1010.8
20260505101840 6 198 0.0 3.2 0.00 0.81 0.00 81 1010.8
20260505101739 6 198 0.0 0.0 0.00 0.81 0.00 81 1010.8
20260505101643 6 198 0.0 3.2 0.00 0.81 0.00 81 1010.8
20260505101552 6 198 0.0 3.2 0.00 0.81 0.00 81 1010.8
20260505101451 6 198 0.0 3.2 0.00 0.81 0.00 81 1010.8
20260505101404 6 198 0.0 3.2 0.00 0.81 0.00 81 1010.8
20260505101106 6 198 0.0 3.2 0.00 0.81 0.00 81 1010.8
20260505100915 6 198 1.6 3.2 0.00 0.81 0.00 81 1010.8
20260505100816 6 198 1.6 3.2 0.00 0.81 0.00 81 1010.8
20260505100700 6 198 1.6 3.2 0.00 0.81 0.00 81 1010.8
20260505100647 6 198 1.6 3.2 0.00 0.81 0.00 81 1010.8
20260505100513 6 198 1.6 3.2 0.00 0.81 0.00 81 1010.8
20260505100442 6 198 1.6 3.2 0.00 0.81 0.00 81 1010.8
20260505100340 6 198 1.6 3.2 0.00 0.81 0.00 81 1010.8
20260505100237 6 198 1.6 3.2 0.00 0.81 0.00 81 1011.1
20260505100123 6 198 1.6 3.2 0.00 0.81 0.00 81 1011.1
20260505100009 6 198 1.6 3.2 0.00 0.81 0.00 81 1011.1
20260505100004 6 198 1.6 3.2 0.00 0.81 0.00 81 1011.1
20260505095759 6 198 1.6 3.2 0.00 0.81 0.00 81 1011.1
20260505095707 6 198 1.6 4.8 0.00 0.81 0.00 81 1011.1
20260505095703 6 198 1.6 3.2 0.00 0.81 0.00 81 1011.1
20260505095542 6 198 1.6 4.8 0.00 0.81 0.00 81 1011.1
20260505095324 6 198 1.6 4.8 0.00 0.81 0.00 81 1011.1
20260505095234 6 198 1.6 4.8 0.00 0.81 0.00 81 1011.1
20260505095230 6 197 1.6 4.8 0.00 0.81 0.00 81 1011.1
20260505095227 6 198 1.6 4.8 0.00 0.81 0.00 81 1011.1
20260505094951 6 254 1.6 4.8 0.00 0.81 0.00 81 1011.1
20260505094913 6 253 1.6 4.8 0.00 0.81 0.00 81 1011.1
20260505094828 6 253 1.6 4.8 0.00 0.81 0.00 81 1011.2
20260505094824 6 253 1.6 4.8 0.00 0.81 0.00 81 1011.2
20260505094715 6 252 1.6 4.8 0.00 0.81 0.00 81 1011.2
20260505094711 6 253 1.6 4.8 0.00 0.81 0.00 81 1011.2
20260505094444 6 252 1.6 3.2 0.00 0.81 0.00 81 1011.2
20260505094356 6 252 1.6 3.2 0.00 0.81 0.00 81 1011.2
20260505094228 6 252 1.6 3.2 0.00 0.81 0.00 81 1011.2
20260505094119 6 252 1.6 4.8 0.00 0.81 0.00 81 1011.2
20260505094114 6 252 1.6 4.8 0.00 0.81 0.00 81 1011.2
20260505093941 6 252 1.6 4.8 0.00 0.81 0.00 81 1011.2
20260505093900 6 252 1.6 4.8 0.00 0.81 0.00 81 1011.2
20260505093745 6 252 1.6 4.8 0.00 0.81 0.00 81 1011.2
20260505093742 6 252 1.6 4.8 0.00 0.81 0.00 81 1011.2
20260505093532 6 252 1.6 4.8 0.00 0.81 0.00 81 1011.2
20260505093431 6 252 1.6 4.8 0.00 0.81 0.00 81 1011.2
20260505093320 6 252 1.6 4.8 0.00 0.81 0.00 81 1010.9
20260505093213 6 252 1.6 4.8 0.00 0.81 0.00 81 1010.9
20260505093110 6 253 1.6 3.2 0.00 0.81 0.00 81 1010.9
20260505093010 6 253 1.6 3.2 0.00 0.81 0.00 81 1010.9
20260505092926 6 253 3.2 3.2 0.00 0.81 0.00 81 1010.9
20260505092901 6 253 3.2 3.2 0.00 0.81 0.00 81 1010.9
20260505092758 6 253 3.2 3.2 0.00 0.81 0.00 81 1010.9
20260505092753 6 253 3.2 3.2 0.00 0.81 0.00 81 1010.9
20260505092533 6 253 3.2 3.2 0.00 0.81 0.00 81 1010.9
20260505092526 6 253 3.2 3.2 0.00 0.81 0.00 81 1010.9
20260505092406 6 253 3.2 3.2 0.00 0.81 0.00 81 1010.9
20260505092320 6 253 3.2 4.8 0.00 0.81 0.00 81 1010.9
20260505092220 6 253 3.2 4.8 0.00 0.81 0.00 81 1010.9
20260505092107 6 267 3.2 4.8 0.00 0.81 0.00 81 1010.9
20260505092000 6 267 3.2 4.8 0.00 0.81 0.00 81 1010.9
20260505091832 6 267 3.2 4.8 0.00 0.81 0.00 81 1010.9
20260505091737 6 267 3.2 4.8 0.00 0.81 0.00 81 1010.9
20260505091724 6 290 3.2 4.8 0.00 0.81 0.00 81 1010.9
20260505091521 6 293 3.2 8.0 0.00 0.81 0.00 81 1010.9
20260505091420 6 292 3.2 8.0 0.00 0.81 0.00 81 1010.9
20260505091315 6 292 3.2 8.0 0.00 0.81 0.00 81 1010.9
20260505091256 6 255 3.2 8.0 0.00 0.81 0.00 81 1010.9
20260505091213 6 254 3.2 8.0 0.00 0.81 0.00 81 1010.9
20260505091112 6 229 3.2 8.0 0.00 0.81 0.00 81 1010.9
20260505091013 6 288 3.2 8.0 0.00 0.81 0.00 81 1010.9
20260505090912 6 287 3.2 8.0 0.00 0.81 0.00 81 1010.9
20260505090813 6 288 3.2 8.0 0.00 0.81 0.00 81 1010.9
20260505090757 6 287 3.2 8.0 0.00 0.81 0.00 81 1010.9
20260505090710 6 289 3.2 8.0 0.00 0.81 0.00 81 1010.9
20260505090610 6 285 3.2 8.0 0.00 0.81 0.00 81 1010.9
20260505090507 6 251 3.2 4.8 0.00 0.81 0.00 81 1010.9
20260505090405 6 249 3.2 4.8 0.00 0.81 0.00 81 1010.9
20260505090302 6 249 3.2 4.8 0.00 0.81 0.00 82 1011.2
20260505090256 6 249 3.2 4.8 0.00 0.81 0.00 81 1011.2
20260505090213 6 249 3.2 6.4 0.00 0.81 0.00 82 1011.2
20260505090208 6 249 3.2 4.8 0.00 0.81 0.00 82 1011.2
20260505085958 6 249 4.8 6.4 0.00 0.81 0.00 82 1011.2
20260505085857 6 243 4.8 6.4 0.00 0.81 0.00 82 1011.2
20260505085757 6 244 4.8 6.4 0.00 0.81 0.00 82 1011.2
20260505085748 6 243 4.8 6.4 0.00 0.81 0.00 82 1011.2
20260505085744 6 243 4.8 6.4 0.00 0.81 0.00 82 1011.2
20260505085510 6 243 4.8 12.9 0.00 0.81 0.00 82 1011.2
20260505085417 6 243 4.8 8.0 0.00 0.81 0.00 82 1011.2
20260505085344 6 243 4.8 8.0 0.00 0.81 0.00 82 1011.2
20260505085217 6 243 4.8 12.9 0.00 0.81 0.00 82 1011.2
20260505085117 6 243 4.8 12.9 0.00 0.81 0.00 82 1011.2
20260505085018 6 248 4.8 12.9 0.00 0.81 0.00 82 1011.2
20260505085012 6 248 4.8 12.9 0.00 0.81 0.00 82 1011.2
20260505084817 6 249 4.8 17.7 0.00 0.81 0.00 82 1011.3
20260505084812 6 248 4.8 17.7 0.00 0.81 0.00 82 1011.3
20260505084607 6 284 4.8 17.7 0.00 0.81 0.00 82 1011.3
20260505084524 6 291 4.8 17.7 0.00 0.81 0.00 82 1011.3
20260505084520 6 302 4.8 17.7 0.00 0.81 0.00 82 1011.3
20260505084516 6 249 4.8 17.7 0.00 0.81 0.00 82 1011.3
20260505084233 6 276 4.8 17.7 0.00 0.81 0.00 82 1011.3
20260505084203 6 251 4.8 17.7 0.00 0.81 0.00 82 1011.3
20260505084102 6 216 4.8 17.7 0.00 0.81 0.00 82 1011.3
20260505084010 6 248 3.2 17.7 0.00 0.81 0.00 82 1011.3
20260505084006 6 297 3.2 17.7 0.00 0.81 0.00 82 1011.3
20260505083757 6 281 3.2 16.1 0.00 0.81 0.00 82 1011.3
20260505083734 6 321 3.2 16.1 0.00 0.81 0.00 82 1011.3
20260505083658 6 301 3.2 16.1 0.00 0.81 0.00 82 1011.3
20260505083607 6 292 3.2 16.1 0.00 0.81 0.00 82 1011.3
20260505083603 6 271 3.2 16.1 0.00 0.81 0.00 82 1011.6
20260505083559 6 292 3.2 16.1 0.00 0.81 0.00 82 1011.3
20260505083449 6 295 3.2 16.1 0.00 0.81 0.00 82 1011.6
20260505083445 6 292 3.2 16.1 0.00 0.81 0.00 82 1011.3
20260505083152 6 311 3.2 11.3 0.00 0.81 0.00 82 1011.6
20260505083148 6 295 3.2 11.3 0.00 0.81 0.00 82 1011.6
20260505082942 6 148 1.6 6.4 0.00 0.81 0.00 81 1011.6
20260505082843 6 1 1.6 6.4 0.00 0.81 0.00 81 1011.6
20260505082734 6 223 1.6 6.4 0.00 0.81 0.00 81 1011.6
20260505082638 6 223 1.6 6.4 0.00 0.81 0.00 81 1011.6
20260505082537 6 224 1.6 6.4 0.00 0.81 0.00 81 1011.6
20260505082437 6 223 1.6 6.4 0.00 0.81 0.00 81 1011.6
20260505082335 6 223 1.6 6.4 0.00 0.81 0.00 81 1011.6
20260505082321 6 299 3.2 3.2 0.00 0.81 0.00 81 1011.5
20260505082235 6 291 1.6 6.4 0.00 0.81 0.00 81 1011.6
20260505082155 6 291 1.6 6.4 0.00 0.81 0.00 81 1011.6
20260505082028 6 291 1.6 4.8 0.00 0.81 0.00 81 1011.6
20260505081934 6 299 3.2 3.2 0.00 0.81 0.00 81 1011.5
20260505081930 6 299 3.2 3.2 0.00 0.81 0.00 81 1011.6
20260505081925 6 299 3.2 3.2 0.00 0.81 0.00 81 1011.5
20260505081613 6 299 3.2 3.2 0.00 0.81 0.00 82 1011.5
20260505081513 6 299 3.2 3.2 0.00 0.81 0.00 82 1011.5
20260505081457 6 299 3.2 4.8 0.00 0.81 0.00 82 1011.5
20260505081412 6 299 3.2 3.2 0.00 0.81 0.00 82 1011.5
20260505081332 6 299 3.2 3.2 0.00 0.81 0.00 82 1011.5
20260505081200 6 299 3.2 8.0 0.00 0.81 0.00 82 1011.5
20260505081126 6 299 3.2 8.0 0.00 0.81 0.00 82 1011.5
20260505081122 6 299 3.2 8.0 0.00 0.81 0.00 82 1011.5
20260505080810 6 301 3.2 9.7 0.00 0.81 0.00 82 1011.5
20260505080708 6 301 3.2 9.7 0.00 0.81 0.00 82 1011.5
20260505080607 6 301 3.2 9.7 0.00 0.81 0.00 82 1011.5
20260505080505 6 301 3.2 9.7 0.00 0.81 0.00 82 1011.5
20260505080426 6 244 3.2 9.7 0.00 0.81 0.00 82 1011.4
20260505080421 6 249 3.2 9.7 0.00 0.81 0.00 82 1011.4
20260505080417 6 301 3.2 9.7 0.00 0.81 0.00 82 1011.5
20260505080302 6 301 3.2 9.7 0.00 0.81 0.00 82 1011.4
20260505075952 6 286 3.2 9.7 0.00 0.81 0.00 82 1011.4
20260505075909 6 309 3.2 6.4 0.00 0.81 0.00 81 1011.4
20260505075904 6 317 3.2 9.7 0.00 0.81 0.00 82 1011.4
20260505075755 6 279 3.2 8.0 0.00 0.81 0.00 82 1011.4
20260505075749 6 278 3.2 8.0 0.00 0.81 0.00 82 1011.4
20260505075545 6 322 3.2 6.4 0.00 0.81 0.00 81 1011.4
20260505075442 6 290 3.2 6.4 0.00 0.81 0.00 81 1011.4
20260505075340 6 300 3.2 4.8 0.00 0.81 0.00 81 1011.4
20260505075237 6 300 3.2 4.8 0.00 0.81 0.00 81 1011.4
20260505075212 6 321 3.2 4.8 0.00 0.81 0.00 81 1011.4
20260505075137 6 321 3.2 4.8 0.00 0.81 0.00 81 1011.4
20260505075038 6 321 3.2 4.8 0.00 0.81 0.00 81 1011.4
20260505074937 6 321 3.2 4.8 0.00 0.81 0.00 81 1011.4
20260505074835 6 321 3.2 4.8 0.00 0.81 0.00 81 1011.4
20260505074704 6 321 3.2 6.4 0.00 0.81 0.00 81 1011.8
20260505074620 6 279 3.2 6.4 0.00 0.81 0.00 81 1011.8
20260505074520 6 279 3.2 6.4 0.00 0.81 0.00 81 1011.8
20260505074410 6 279 3.2 6.4 0.00 0.81 0.00 81 1011.8
20260505074309 6 279 3.2 6.4 0.00 0.81 0.00 81 1011.8
20260505074205 6 278 3.2 6.4 0.00 0.81 0.00 81 1011.8
20260505074102 6 320 3.2 6.4 0.00 0.81 0.00 81 1011.8
20260505074002 6 287 3.2 6.4 0.00 0.81 0.00 81 1011.8
20260505073845 6 287 3.2 6.4 0.00 0.81 0.00 81 1011.8
20260505073735 6 285 3.2 6.4 0.00 0.81 0.00 81 1011.8
20260505073704 6 285 3.2 6.4 0.00 0.81 0.00 81 1011.8
20260505073645 6 285 3.2 6.4 0.00 0.81 0.00 81 1011.8
20260505073641 6 285 3.2 6.4 0.00 0.81 0.00 81 1011.8
20260505073428 6 285 3.2 6.4 0.00 0.81 0.00 81 1011.8
20260505073337 6 283 3.2 6.4 0.00 0.81 0.00 81 1012.0
20260505073333 6 284 3.2 6.4 0.00 0.81 0.00 81 1012.0
20260505073201 6 283 3.2 6.4 0.00 0.81 0.00 81 1012.0
20260505073127 6 333 3.2 6.4 0.00 0.81 0.00 81 1012.0
20260505073007 6 332 1.6 6.4 0.00 0.81 0.00 81 1012.0
20260505072902 6 340 1.6 6.4 0.00 0.81 0.00 81 1012.0
20260505072803 6 340 1.6 6.4 0.00 0.81 0.00 81 1012.0
20260505072703 6 341 1.6 6.4 0.00 0.81 0.00 81 1012.0
20260505072557 6 267 1.6 4.8 0.00 0.81 0.00 81 1012.0
20260505072500 6 267 1.6 4.8 0.00 0.81 0.00 81 1012.0
20260505072456 6 267 1.6 4.8 0.00 0.81 0.00 81 1012.0
20260505072239 6 267 1.6 4.8 0.00 0.81 0.00 81 1012.0
20260505072133 6 267 1.6 4.8 0.00 0.81 0.00 81 1012.0
20260505072027 6 267 1.6 4.8 0.00 0.81 0.00 81 1012.0
20260505071927 6 267 3.2 3.2 0.00 0.81 0.00 81 1011.6
20260505071923 6 267 3.2 4.8 0.00 0.81 0.00 81 1012.0
20260505071705 6 267 3.2 3.2 0.00 0.81 0.00 81 1011.6
20260505071653 6 267 3.2 3.2 0.00 0.81 0.00 81 1011.6
20260505071605 6 267 3.2 3.2 0.00 0.81 0.00 81 1011.6
20260505071511 6 267 3.2 4.8 0.00 0.81 0.00 81 1011.6
20260505071507 6 267 3.2 3.2 0.00 0.81 0.00 81 1011.6
20260505071358 6 267 3.2 4.8 0.00 0.81 0.00 81 1011.6
20260505071152 6 267 3.2 4.8 0.00 0.81 0.00 81 1011.6
20260505071039 6 267 3.2 4.8 0.00 0.81 0.00 81 1011.6
20260505070913 6 267 3.2 4.8 0.00 0.81 0.00 81 1011.6
20260505070809 6 267 3.2 4.8 0.00 0.81 0.00 81 1011.6
20260505070804 6 267 3.2 4.8 0.00 0.81 0.00 81 1011.6
20260505070655 6 267 3.2 4.8 0.00 0.81 0.00 81 1011.6
20260505070553 6 267 3.2 4.8 0.00 0.81 0.00 81 1011.6
20260505070450 6 267 3.2 4.8 0.00 0.81 0.00 81 1011.6
20260505070345 6 267 3.2 4.8 0.00 0.81 0.00 81 1011.6
20260505070237 6 267 3.2 4.8 0.00 0.81 0.00 81 1011.5
20260505070132 6 267 3.2 4.8 0.00 0.81 0.00 81 1011.5
20260505070017 6 267 3.2 4.8 0.00 0.81 0.00 81 1011.5
20260505065918 6 267 1.6 4.8 0.00 0.81 0.81 81 1011.5
20260505065815 6 267 1.6 4.8 0.00 0.81 0.81 81 1011.5
20260505065710 6 267 1.6 4.8 0.00 0.81 0.81 81 1011.5
20260505065648 6 267 1.6 4.8 0.00 0.81 0.81 81 1011.5
20260505065610 6 267 1.6 4.8 0.00 0.81 0.81 81 1011.5
20260505065510 6 267 1.6 4.8 0.00 0.81 0.81 81 1011.5
20260505065417 6 267 1.6 4.8 0.00 0.81 0.81 81 1011.5
20260505065413 6 267 1.6 4.8 0.00 0.81 0.81 81 1011.5
20260505065409 6 267 1.6 4.8 0.00 0.81 0.81 81 1011.5
20260505065251 6 267 1.6 4.8 0.00 0.81 0.81 81 1011.5
20260505065053 6 267 1.6 4.8 0.00 0.81 0.81 81 1011.5
20260505064950 6 127 3.2 4.8 0.00 0.81 0.81 81 1011.5
20260505064850 6 127 3.2 4.8 0.00 0.81 0.81 81 1011.5
20260505064750 6 127 3.2 4.8 0.00 0.81 0.81 81 1010.9
20260505064632 6 126 3.2 4.8 0.00 0.81 0.81 81 1010.9
20260505064549 6 125 3.2 4.8 0.00 0.81 0.81 81 1010.9
20260505064447 6 162 3.2 6.4 0.00 0.81 0.81 81 1010.9
20260505064424 6 162 3.2 6.4 0.00 0.81 0.81 81 1010.9
20260505064347 6 162 3.2 6.4 0.00 0.81 0.81 81 1010.9
20260505064311 6 162 3.2 6.4 0.00 0.81 0.81 81 1010.9
20260505064307 6 162 1.6 6.4 0.00 0.81 0.81 81 1010.9
20260505064303 6 162 3.2 6.4 0.00 0.81 0.81 81 1010.9
20260505064257 6 162 3.2 6.4 0.00 0.81 0.81 81 1010.9
20260505063840 6 163 1.6 6.4 0.00 0.81 0.81 81 1010.9
20260505063737 6 163 1.6 6.4 0.00 0.81 0.81 81 1010.9
20260505063651 6 166 1.6 6.4 0.00 0.81 0.81 81 1010.9
20260505063642 6 166 1.6 6.4 0.00 0.81 0.81 81 1010.9
20260505063432 6 170 1.6 6.4 0.00 0.81 0.81 81 1010.9
20260505063332 6 43 1.6 4.8 0.00 0.81 0.81 81 1010.9
20260505063248 6 43 1.6 3.2 0.00 0.81 0.81 81 1010.8
20260505063244 6 43 1.6 4.8 0.00 0.81 0.81 81 1010.8
20260505063131 6 43 1.6 4.8 0.00 0.81 0.81 81 1010.8
20260505062915 6 43 1.6 3.2 0.00 0.81 0.81 81 1010.8
20260505062803 6 43 1.6 3.2 0.00 0.81 0.81 81 1010.8
20260505062631 6 43 1.6 3.2 0.00 0.81 0.81 81 1010.8
20260505062557 6 43 1.6 3.2 0.00 0.81 0.81 81 1010.8
20260505062455 6 43 1.6 3.2 0.00 0.81 0.81 81 1010.8
20260505062354 7 43 1.6 3.2 0.00 0.81 0.81 81 1010.8
20260505062227 7 43 1.6 3.2 0.00 0.81 0.81 81 1010.8
20260505062128 7 43 1.6 4.8 0.00 0.81 0.81 81 1010.8
20260505062123 6 43 1.6 4.8 0.00 0.81 0.81 81 1010.8
20260505062027 7 43 1.6 4.8 0.00 0.81 0.81 81 1010.8
20260505061911 7 43 3.2 4.8 0.00 0.81 0.81 81 1010.8
20260505061804 7 43 3.2 6.4 0.00 0.81 0.81 81 1010.7
20260505061658 6 43 3.2 6.4 0.00 0.81 0.81 81 1010.7
20260505061647 7 43 3.2 6.4 0.00 0.81 0.81 81 1010.7
20260505061643 7 43 3.2 6.4 0.00 0.81 0.81 81 1010.7
20260505061639 7 43 3.2 6.4 0.00 0.81 0.81 81 1010.7
20260505061412 6 43 3.2 6.4 0.00 0.81 0.81 81 1010.7
20260505061218 7 43 3.2 6.4 0.00 0.81 0.81 81 1010.7
20260505061214 7 43 3.2 6.4 0.00 0.81 0.81 81 1010.7
20260505061205 7 43 3.2 6.4 0.00 0.81 0.81 81 1010.7
20260505060852 7 43 3.2 6.4 0.00 0.81 0.81 81 1010.7
20260505060745 7 19 3.2 6.4 0.00 0.81 0.81 81 1010.7
20260505060653 7 320 3.2 6.4 0.00 0.81 0.81 81 1010.7
20260505060649 7 353 3.2 6.4 0.00 0.81 0.81 81 1010.7
20260505060644 7 320 3.2 4.8 0.00 0.81 0.81 81 1010.7
20260505060432 7 320 3.2 6.4 0.00 0.81 0.81 81 1010.7
20260505060330 7 320 3.2 6.4 0.00 0.81 0.81 81 1010.8
20260505060229 7 320 3.2 6.4 0.00 0.81 0.81 81 1010.8
20260505060106 7 320 3.2 6.4 0.00 0.81 0.81 81 1010.8
20260505060024 7 320 3.2 6.4 0.00 0.81 0.81 81 1010.8
20260505055924 7 320 3.2 6.4 0.00 0.81 0.81 81 1010.8
20260505055747 7 320 3.2 6.4 0.00 0.81 0.81 81 1010.8
20260505055701 7 311 3.2 8.0 0.00 0.81 0.81 81 1010.8
20260505055657 7 320 3.2 6.4 0.00 0.81 0.81 81 1010.8
20260505055652 7 320 3.2 6.4 0.00 0.81 0.81 81 1010.8
20260505055337 7 243 3.2 8.0 0.00 0.81 0.81 81 1010.8
20260505055236 7 242 3.2 8.0 0.00 0.81 0.81 81 1010.8
20260505055135 7 242 3.2 8.0 0.00 0.81 0.81 81 1010.8
20260505055059 7 242 3.2 8.0 0.00 0.81 0.81 81 1010.8
20260505055026 7 242 3.2 8.0 0.00 0.81 0.81 81 1010.8
20260505054922 7 242 3.2 8.0 0.00 0.81 0.81 81 1010.8
20260505054823 7 274 3.2 8.0 0.00 0.81 0.81 82 1011.2
20260505054722 7 139 3.2 8.0 0.00 0.81 0.81 81 1011.2
20260505054620 7 140 3.2 8.0 0.00 0.81 0.81 81 1011.2
20260505054556 7 140 3.2 8.0 0.00 0.81 0.81 82 1011.2
20260505054520 7 284 3.2 8.0 0.00 0.81 0.81 81 1011.2
20260505054412 7 317 3.2 8.0 0.00 0.81 0.81 81 1011.2
20260505054345 6 296 3.2 6.4 0.00 0.81 0.81 81 1011.2
20260505054312 7 216 3.2 6.4 0.00 0.81 0.81 81 1011.2
20260505054229 6 14 3.2 4.8 0.00 0.81 0.81 81 1011.2
20260505054225 7 237 3.2 6.4 0.00 0.81 0.81 81 1011.2
20260505054220 7 300 3.2 6.4 0.00 0.81 0.81 81 1011.2
20260505053910 6 14 3.2 4.8 0.00 0.81 0.81 81 1011.2
20260505053807 6 14 3.2 6.4 0.00 0.81 0.81 81 1011.2
20260505053658 6 14 3.2 6.4 0.00 0.81 0.81 81 1011.2
20260505053557 6 302 3.2 6.4 0.00 0.81 0.81 81 1011.2
20260505053546 6 302 3.2 6.4 0.00 0.81 0.81 81 1011.2
20260505053542 6 302 3.2 6.4 0.00 0.81 0.81 81 1011.2
20260505053229 6 302 3.2 6.4 0.00 0.81 0.81 81 1011.4
20260505053133 6 302 3.2 6.4 0.00 0.81 0.81 81 1011.4
20260505053124 6 302 3.2 6.4 0.00 0.81 0.81 81 1011.4
20260505052912 6 301 3.2 6.4 0.00 0.81 0.81 81 1011.4
20260505052809 6 302 3.2 6.4 0.00 0.81 0.81 81 1011.4
20260505052707 6 304 3.2 6.4 0.00 0.81 0.81 81 1011.4
20260505052607 6 216 3.2 6.4 0.00 0.81 0.81 81 1011.4
20260505052551 6 216 3.2 6.4 0.00 0.81 0.81 81 1011.4
20260505052505 6 214 3.2 6.4 0.00 0.81 0.81 81 1011.4
20260505052405 6 245 3.2 6.4 0.00 0.81 0.81 81 1011.4
20260505052323 6 245 3.2 6.4 0.00 0.81 0.81 81 1011.4
20260505052319 6 245 3.2 6.4 0.00 0.81 0.81 81 1011.4
20260505052315 6 245 3.2 6.4 0.00 0.81 0.81 81 1011.4
20260505052051 6 244 3.2 6.4 0.00 0.81 0.81 81 1011.4
20260505052005 6 244 4.8 6.4 0.00 0.81 0.81 81 1011.4
20260505051905 6 247 4.8 8.0 0.00 0.81 0.81 81 1011.4
20260505051805 6 210 4.8 8.0 0.00 0.81 0.81 81 1011.2
20260505051705 6 210 4.8 8.0 0.00 0.81 0.81 81 1011.2
20260505051548 6 209 4.8 11.3 0.00 0.81 0.81 81 1011.2
20260505051452 6 211 4.8 11.3 0.00 0.81 0.81 81 1011.2
20260505051340 6 153 4.8 11.3 0.00 0.81 0.81 81 1011.2
20260505051237 6 245 4.8 11.3 0.00 0.81 0.81 81 1011.2
20260505051138 6 245 4.8 14.5 0.00 0.81 0.81 81 1011.2
20260505051046 6 245 4.8 14.5 0.00 0.81 0.81 81 1011.2
20260505051032 6 246 4.8 14.5 0.00 0.81 0.81 81 1011.2
20260505050930 6 239 3.2 14.5 0.00 0.81 0.81 81 1011.2
20260505050827 6 173 3.2 14.5 0.00 0.81 0.81 81 1011.2
20260505050728 6 205 3.2 14.5 0.00 0.81 0.81 81 1011.2
20260505050636 6 274 3.2 14.5 0.00 0.81 0.81 81 1011.2
20260505050632 6 272 3.2 14.5 0.00 0.81 0.81 81 1011.2
20260505050627 6 302 3.2 14.5 0.00 0.81 0.81 81 1011.2
20260505050422 6 287 3.2 14.5 0.00 0.81 0.81 81 1011.2
20260505050323 6 224 3.2 14.5 0.00 0.81 0.81 81 1011.1
20260505050222 6 300 3.2 14.5 0.00 0.81 0.81 81 1011.1
20260505050122 6 290 3.2 9.7 0.00 0.81 0.81 81 1011.1
20260505041757 6 229 6.4 12.9 0.08 0.81 0.81 81 1010.9
20260505041752 6 284 6.4 16.1 0.03 0.81 0.81 81 1010.9
20260505041629 6 295 6.4 14.5 0.08 0.81 0.81 81 1010.9
20260505041447 6 303 6.4 12.9 0.08 0.81 0.81 81 1010.9
20260505041348 6 300 6.4 12.9 0.08 0.81 0.81 81 1010.9
20260505041247 6 254 6.4 12.9 0.08 0.81 0.81 81 1010.9
20260505041145 6 282 6.4 12.9 0.08 0.81 0.81 81 1010.9
20260505041032 6 292 6.4 14.5 0.08 0.81 0.81 81 1010.9
20260505041024 6 298 6.4 14.5 0.08 0.81 0.81 81 1010.9
20260505040942 6 267 6.4 14.5 0.08 0.81 0.81 81 1010.9
20260505040938 6 271 6.4 14.5 0.08 0.81 0.81 81 1010.9
20260505040755 6 288 6.4 14.5 0.10 0.81 0.81 81 1010.9
20260505040743 6 250 6.4 14.5 0.10 0.81 0.81 81 1010.9
20260505040739 6 274 6.4 14.5 0.08 0.81 0.81 81 1010.9
20260505040628 6 266 6.4 14.5 0.10 0.81 0.81 81 1010.9
20260505040432 6 250 6.4 14.5 0.10 0.81 0.81 81 1010.9
20260505040332 6 265 6.4 14.5 0.10 0.81 0.81 81 1010.9
20260505040254 6 271 6.4 12.9 0.10 0.81 0.81 81 1011.1
20260505040250 6 301 6.4 12.9 0.13 0.81 0.81 81 1011.1
20260505040246 6 241 6.4 14.5 0.10 0.81 0.81 81 1011.1
20260505040240 6 311 6.4 14.5 0.10 0.81 0.81 81 1011.1
20260505035825 6 292 6.4 11.3 0.13 0.81 0.81 81 1011.1
20260505035724 6 295 6.4 11.3 0.13 0.81 0.81 81 1011.1
20260505035625 6 312 6.4 9.7 0.13 0.81 0.81 81 1011.1
20260505035524 6 304 6.4 22.5 0.13 0.81 0.81 81 1011.1
20260505035514 6 263 6.4 22.5 0.15 0.81 0.81 81 1011.1